DW8690 Weather Reports


Display with metric or nautical units.
time (UTC)temp
F
wind
direction
speed
MPH
gust
MPH
rain 1hr
in
rain 24hr
in
rain mn
in
humidity
%
barometer
mb
20260510191304 85 332 3.0 8.0 0.00 0.00 0.00 10 1012.7
20260510191205 85 0 0.0 8.0 0.00 0.00 0.00 10 1012.8
20260510191104 85 334 2.0 8.0 0.00 0.00 0.00 10 1012.8
20260510191004 84 334 4.0 8.0 0.00 0.00 0.00 10 1012.8
20260510190905 84 335 2.0 8.0 0.00 0.00 0.00 10 1012.8
20260510190804 84 325 4.0 8.0 0.00 0.00 0.00 10 1012.9
20260510190705 84 318 4.0 8.0 0.00 0.00 0.00 10 1012.9
20260510190604 84 312 4.0 6.0 0.00 0.00 0.00 10 1012.9
20260510190405 84 322 3.0 6.0 0.00 0.00 0.00 10 1012.9
20260510190304 84 336 2.0 6.0 0.00 0.00 0.00 10 1012.9
20260510190205 84 346 2.0 6.0 0.00 0.00 0.00 10 1012.8
20260510190105 84 2 4.0 8.0 0.00 0.00 0.00 10 1012.9
20260510190004 84 331 2.0 8.0 0.00 0.00 0.00 10 1013.0
20260510185905 84 315 3.0 8.0 0.00 0.00 0.00 10 1012.9
20260510185605 83 307 1.0 8.0 0.00 0.00 0.00 10 1013.0
20260510185505 83 295 2.0 8.0 0.00 0.00 0.00 10 1013.0
20260510185405 83 280 2.0 8.0 0.00 0.00 0.00 10 1013.0
20260510185306 83 278 4.0 8.0 0.00 0.00 0.00 10 1013.1
20260510185204 83 260 5.0 8.0 0.00 0.00 0.00 10 1013.0
20260510185105 83 231 4.0 8.0 0.00 0.00 0.00 10 1013.1
20260510185004 83 163 3.0 8.0 0.00 0.00 0.00 10 1013.0
20260510184905 83 132 2.0 8.0 0.00 0.00 0.00 10 1013.1
20260510184805 83 114 2.0 8.0 0.00 0.00 0.00 10 1013.2
20260510184704 83 108 1.0 8.0 0.00 0.00 0.00 10 1013.1
20260510184605 83 98 1.0 8.0 0.00 0.00 0.00 10 1013.1
20260510184504 83 93 1.0 8.0 0.00 0.00 0.00 10 1013.0
20260510184405 83 88 3.0 8.0 0.00 0.00 0.00 10 1013.0
20260510184304 83 84 2.0 8.0 0.00 0.00 0.00 10 1013.1
20260510184204 83 81 4.0 8.0 0.00 0.00 0.00 10 1013.1
20260510184005 83 355 4.0 7.0 0.00 0.00 0.00 10 1013.2
20260510183804 83 294 2.0 7.0 0.00 0.00 0.00 10 1013.2
20260510183704 83 291 2.0 5.0 0.00 0.00 0.00 10 1013.2
20260510183405 82 280 2.0 8.0 0.00 0.00 0.00 10 1013.3
20260510183305 82 272 3.0 8.0 0.00 0.00 0.00 10 1013.3
20260510183204 82 265 3.0 8.0 0.00 0.00 0.00 10 1013.2
20260510183105 82 268 3.0 8.0 0.00 0.00 0.00 10 1013.3
20260510183004 82 270 2.0 8.0 0.00 0.00 0.00 10 1013.3
20260510182905 82 270 1.0 8.0 0.00 0.00 0.00 10 1013.4
20260510182805 82 269 1.0 8.0 0.00 0.00 0.00 10 1013.3
20260510182704 82 267 1.0 8.0 0.00 0.00 0.00 10 1013.3
20260510182605 82 276 2.0 8.0 0.00 0.00 0.00 10 1013.4
20260510182504 82 283 2.0 8.0 0.00 0.00 0.00 10 1013.3
20260510182404 82 288 3.0 6.0 0.00 0.00 0.00 10 1013.3
20260510182204 82 301 2.0 6.0 0.00 0.00 0.00 10 1013.4
20260510182104 82 307 4.0 6.0 0.00 0.00 0.00 10 1013.3
20260510182005 82 310 1.0 6.0 0.00 0.00 0.00 10 1013.3
20260510181904 82 0 0.0 6.0 0.00 0.00 0.00 10 1013.3
20260510181805 82 0 0.0 6.0 0.00 0.00 0.00 10 1013.2
20260510181704 81 347 2.0 6.0 0.00 0.00 0.00 10 1013.3
20260510181505 81 357 2.0 4.0 0.00 0.00 0.00 10 1013.4
20260510181404 81 32 2.0 4.0 0.00 0.00 0.00 10 1013.4
20260510181304 81 0 0.0 4.0 0.00 0.00 0.00 10 1013.4
20260510181205 81 30 1.0 4.0 0.00 0.00 0.00 10 1013.4
20260510181104 81 138 1.0 4.0 0.00 0.00 0.00 10 1013.4
20260510181005 80 161 1.0 4.0 0.00 0.00 0.00 10 1013.3
20260510180904 80 194 2.0 4.0 0.00 0.00 0.00 10 1013.4
20260510180805 80 209 1.0 4.0 0.00 0.00 0.00 10 1013.5
20260510180704 80 223 2.0 4.0 0.00 0.00 0.00 10 1013.5
20260510180505 80 266 2.0 6.0 0.00 0.00 0.00 10 1013.5
20260510180404 80 262 2.0 6.0 0.00 0.00 0.00 10 1013.5
20260510180305 80 263 2.0 6.0 0.00 0.00 0.00 10 1013.5
20260510180204 79 274 1.0 6.0 0.00 0.00 0.00 10 1013.6
20260510180005 79 0 0.0 6.0 0.00 0.00 0.00 10 1013.5
20260510175905 79 0 0.0 6.0 0.00 0.00 0.00 10 1013.5
20260510175804 79 291 1.0 6.0 0.00 0.00 0.00 10 1013.6
20260510175705 79 298 2.0 6.0 0.00 0.00 0.00 10 1013.5
20260510175604 79 299 4.0 6.0 0.00 0.00 0.00 10 1013.5
20260510175505 79 293 2.0 5.0 0.00 0.00 0.00 10 1013.6
20260510175404 78 301 1.0 6.0 0.00 0.00 0.00 10 1013.6
20260510175306 78 308 2.0 6.0 0.00 0.00 0.00 10 1013.6
20260510175204 78 310 2.0 6.0 0.00 0.00 0.00 10 1013.6
20260510175005 78 310 2.0 6.0 0.00 0.00 0.00 10 1013.6
20260510174904 78 314 3.0 6.0 0.00 0.00 0.00 10 1013.6
20260510174805 78 316 1.0 6.0 0.00 0.00 0.00 10 1013.6
20260510174704 78 0 0.0 6.0 0.00 0.00 0.00 10 1013.7
20260510174605 78 318 2.0 6.0 0.00 0.00 0.00 10 1013.6
20260510174504 78 323 2.0 6.0 0.00 0.00 0.00 10 1013.7
20260510174305 78 329 2.0 5.0 0.00 0.00 0.00 10 1013.6
20260510174205 78 336 1.0 5.0 0.00 0.00 0.00 10 1013.6
20260510174005 78 341 2.0 5.0 0.00 0.00 0.00 10 1013.6
20260510173905 78 339 1.0 5.0 0.00 0.00 0.00 10 1013.5
20260510173804 78 338 2.0 5.0 0.00 0.00 0.00 10 1013.5
20260510173705 78 334 2.0 5.0 0.00 0.00 0.00 10 1013.6
20260510173604 78 333 2.0 5.0 0.00 0.00 0.00 10 1013.6
20260510173505 78 322 2.0 4.0 0.00 0.00 0.00 10 1013.7
20260510173404 78 311 2.0 4.0 0.00 0.00 0.00 10 1013.6
20260510173304 77 295 2.0 5.0 0.00 0.00 0.00 10 1013.6
20260510173205 77 281 1.0 5.0 0.00 0.00 0.00 10 1013.5
20260510173104 77 277 1.0 5.0 0.00 0.00 0.00 10 1013.6
20260510172904 77 274 1.0 5.0 0.00 0.00 0.00 10 1013.7
20260510172805 76 270 1.0 5.0 0.00 0.00 0.00 10 1013.6
20260510172705 76 271 1.0 5.0 0.00 0.00 0.00 11 1013.8
20260510172505 76 273 2.0 5.0 0.00 0.00 0.00 10 1013.7
20260510172405 76 273 3.0 5.0 0.00 0.00 0.00 10 1013.6
20260510172307 76 271 1.0 4.0 0.00 0.00 0.00 12 1013.8
20260510172204 76 264 2.0 4.0 0.00 0.00 0.00 12 1013.8
20260510172104 75 263 1.0 3.0 0.00 0.00 0.00 12 1013.8
20260510172005 75 0 0.0 3.0 0.00 0.00 0.00 12 1013.7
20260510171904 75 256 2.0 3.0 0.00 0.00 0.00 12 1013.8
20260510171804 75 0 0.0 5.0 0.00 0.00 0.00 12 1013.8
20260510171705 74 0 0.0 5.0 0.00 0.00 0.00 12 1013.8
20260510171604 74 282 2.0 5.0 0.00 0.00 0.00 12 1013.8
20260510171505 74 282 2.0 5.0 0.00 0.00 0.00 12 1013.9
20260510171405 74 282 1.0 5.0 0.00 0.00 0.00 12 1013.8
20260510171304 74 289 2.0 5.0 0.00 0.00 0.00 12 1013.9
20260510171205 74 323 2.0 5.0 0.00 0.00 0.00 12 1013.9
20260510171104 74 339 2.0 5.0 0.00 0.00 0.00 12 1013.9
20260510171005 74 1 2.0 5.0 0.00 0.00 0.00 13 1013.9
20260510170904 75 13 2.0 5.0 0.00 0.00 0.00 13 1013.9
20260510170804 74 38 2.0 5.0 0.00 0.00 0.00 14 1013.9
20260510170705 74 43 2.0 4.0 0.00 0.00 0.00 13 1013.9
20260510170604 74 0 0.0 4.0 0.00 0.00 0.00 14 1013.9
20260510170405 74 36 1.0 5.0 0.00 0.00 0.00 14 1013.9
20260510170304 74 32 2.0 5.0 0.00 0.00 0.00 13 1013.7
20260510170205 74 26 3.0 5.0 0.00 0.00 0.00 14 1013.8
20260510170104 74 23 1.0 5.0 0.00 0.00 0.00 14 1013.8
20260510170005 73 6 2.0 5.0 0.00 0.00 0.00 14 1013.7
20260510165805 73 326 1.0 5.0 0.00 0.00 0.00 15 1013.9
20260510165605 73 296 2.0 5.0 0.00 0.00 0.00 16 1013.8
20260510165504 73 285 2.0 5.0 0.00 0.00 0.00 16 1013.8
20260510165404 72 0 0.0 5.0 0.00 0.00 0.00 16 1013.9
20260510165306 72 0 0.0 5.0 0.00 0.00 0.00 16 1013.9
20260510165204 72 288 1.0 5.0 0.00 0.00 0.00 16 1013.8
20260510165105 72 288 2.0 5.0 0.00 0.00 0.00 16 1013.8
20260510165005 72 285 2.0 5.0 0.00 0.00 0.00 16 1014.0
20260510164904 72 289 2.0 5.0 0.00 0.00 0.00 16 1014.0
20260510164805 72 0 0.0 4.0 0.00 0.00 0.00 15 1013.8
20260510164604 72 299 2.0 4.0 0.00 0.00 0.00 16 1013.9
20260510164505 72 313 2.0 4.0 0.00 0.00 0.00 16 1014.0
20260510164404 72 325 2.0 4.0 0.00 0.00 0.00 17 1014.0
20260510164304 72 328 2.0 4.0 0.00 0.00 0.00 17 1014.0
20260510164206 72 326 2.0 4.0 0.00 0.00 0.00 17 1014.0
20260510164104 72 334 2.0 4.0 0.00 0.00 0.00 17 1014.0
20260510164004 71 0 0.0 4.0 0.00 0.00 0.00 17 1014.0
20260510163904 71 0 0.0 4.0 0.00 0.00 0.00 17 1014.0
20260510163804 71 350 2.0 4.0 0.00 0.00 0.00 17 1014.1
20260510163705 71 349 1.0 4.0 0.00 0.00 0.00 18 1013.9
20260510163605 71 347 2.0 5.0 0.00 0.00 0.00 18 1014.0
20260510163504 71 349 2.0 5.0 0.00 0.00 0.00 19 1014.0
20260510163405 71 0 0.0 5.0 0.00 0.00 0.00 18 1014.2
20260510163205 70 336 2.0 5.0 0.00 0.00 0.00 19 1014.1
20260510162905 70 315 1.0 5.0 0.00 0.00 0.00 19 1014.1
20260510162804 70 321 2.0 5.0 0.00 0.00 0.00 18 1014.1
20260510162704 70 342 1.0 5.0 0.00 0.00 0.00 19 1014.1
20260510162605 70 340 1.0 5.0 0.00 0.00 0.00 19 1014.1
20260510162504 70 0 0.0 5.0 0.00 0.00 0.00 19 1014.0
20260510162405 70 0 0.0 5.0 0.00 0.00 0.00 19 1014.1
20260510162306 70 345 2.0 5.0 0.00 0.00 0.00 19 1014.2
20260510162205 70 353 2.0 5.0 0.00 0.00 0.00 20 1014.0
20260510162104 70 345 2.0 5.0 0.00 0.00 0.00 20 1014.0
20260510162004 70 0 0.0 5.0 0.00 0.00 0.00 20 1014.1
20260510161905 69 0 0.0 5.0 0.00 0.00 0.00 19 1014.1
20260510161804 69 290 1.0 5.0 0.00 0.00 0.00 19 1014.0
20260510161604 69 276 2.0 5.0 0.00 0.00 0.00 20 1014.1
20260510161404 69 266 1.0 4.0 0.00 0.00 0.00 21 1014.1
20260510161305 69 270 1.0 4.0 0.00 0.00 0.00 21 1014.1
20260510161104 69 262 2.0 4.0 0.00 0.00 0.00 21 1014.1
20260510161005 69 257 1.0 4.0 0.00 0.00 0.00 21 1014.1
20260510160904 69 262 1.0 4.0 0.00 0.00 0.00 21 1014.2
20260510160804 69 0 0.0 4.0 0.00 0.00 0.00 21 1014.2
20260510160705 69 0 0.0 4.0 0.00 0.00 0.00 21 1014.2
20260510160604 69 290 2.0 4.0 0.00 0.00 0.00 21 1014.1
20260510160305 68 0 0.0 7.0 0.00 0.00 0.00 23 1014.2
20260510160204 68 0 0.0 7.0 0.00 0.00 0.00 23 1014.3
20260510160105 68 0 0.0 7.0 0.00 0.00 0.00 23 1014.2
20260510160004 67 0 0.0 7.0 0.00 0.00 0.00 23 1014.2
20260510155904 67 0 0.0 7.0 0.00 0.00 0.00 23 1014.3
20260510155805 67 291 1.0 7.0 0.00 0.00 0.00 23 1014.3
20260510155704 67 294 2.0 7.0 0.00 0.00 0.00 23 1014.3
20260510155605 67 295 2.0 7.0 0.00 0.00 0.00 24 1014.3
20260510155404 67 0 0.0 7.0 0.00 0.00 0.00 24 1014.3
20260510155306 66 293 2.0 7.0 0.00 0.00 0.00 24 1014.3
20260510155204 66 0 0.0 4.0 0.00 0.00 0.00 24 1014.4
20260510155105 66 304 1.0 4.0 0.00 0.00 0.00 24 1014.3
20260510155004 66 316 2.0 4.0 0.00 0.00 0.00 24 1014.4
20260510154905 66 0 0.0 4.0 0.00 0.00 0.00 24 1014.3
20260510154804 66 0 0.0 4.0 0.00 0.00 0.00 25 1014.4
20260510154705 66 0 0.0 4.0 0.00 0.00 0.00 25 1014.3
20260510154604 65 0 0.0 4.0 0.00 0.00 0.00 24 1014.4
20260510154505 65 320 2.0 4.0 0.00 0.00 0.00 24 1014.4
20260510154404 65 316 1.0 4.0 0.00 0.00 0.00 24 1014.3
20260510154304 65 324 2.0 4.0 0.00 0.00 0.00 24 1014.4
20260510154205 65 328 1.0 4.0 0.00 0.00 0.00 25 1014.4
20260510154104 65 322 1.0 4.0 0.00 0.00 0.00 25 1014.4
20260510153804 65 303 2.0 4.0 0.00 0.00 0.00 25 1014.2
20260510153704 65 308 2.0 4.0 0.00 0.00 0.00 26 1014.2
20260510153605 65 0 0.0 4.0 0.00 0.00 0.00 27 1014.3
20260510153504 64 0 0.0 4.0 0.00 0.00 0.00 26 1014.3
20260510153304 64 314 2.0 4.0 0.00 0.00 0.00 26 1014.3
20260510153204 64 315 1.0 4.0 0.00 0.00 0.00 27 1014.4
20260510153005 64 0 0.0 4.0 0.00 0.00 0.00 28 1014.4
20260510152904 64 0 0.0 4.0 0.00 0.00 0.00 27 1014.3
20260510152805 64 326 2.0 4.0 0.00 0.00 0.00 27 1014.3
20260510152704 64 325 1.0 4.0 0.00 0.00 0.00 27 1014.4
20260510152605 64 327 1.0 4.0 0.00 0.00 0.00 27 1014.4
20260510152504 64 320 2.0 4.0 0.00 0.00 0.00 28 1014.3
20260510152404 64 0 0.0 4.0 0.00 0.00 0.00 28 1014.3
20260510152307 64 315 1.0 4.0 0.00 0.00 0.00 28 1014.3
20260510152204 64 315 1.0 4.0 0.00 0.00 0.00 28 1014.4
20260510152104 64 315 2.0 4.0 0.00 0.00 0.00 28 1014.4
20260510152004 64 311 2.0 4.0 0.00 0.00 0.00 27 1014.4
20260510151805 64 308 2.0 4.0 0.00 0.00 0.00 26 1014.3
20260510151705 64 308 2.0 4.0 0.00 0.00 0.00 26 1014.3
20260510151605 64 303 2.0 4.0 0.00 0.00 0.00 26 1014.3
20260510151504 64 310 2.0 4.0 0.00 0.00 0.00 26 1014.4
20260510151404 64 300 2.0 4.0 0.00 0.00 0.00 27 1014.5
20260510151305 65 353 2.0 4.0 0.00 0.00 0.00 26 1014.4
20260510151204 64 0 0.0 2.0 0.00 0.00 0.00 26 1014.4
20260510151105 64 0 0.0 2.0 0.00 0.00 0.00 26 1014.4
20260510151004 64 0 0.0 2.0 0.00 0.00 0.00 26 1014.4
20260510150904 64 0 0.0 2.0 0.00 0.00 0.00 26 1014.4
20260510150805 64 187 1.0 2.0 0.00 0.00 0.00 26 1014.4
20260510150404 63 0 0.0 2.0 0.00 0.00 0.00 32 1014.5
20260510150304 63 0 0.0 2.0 0.00 0.00 0.00 32 1014.4
20260510150204 63 0 0.0 2.0 0.00 0.00 0.00 32 1014.4
20260510150106 63 0 0.0 2.0 0.00 0.00 0.00 32 1014.4
20260510150004 63 0 0.0 2.0 0.00 0.00 0.00 32 1014.4
20260510145904 63 0 0.0 2.0 0.00 0.00 0.00 33 1014.5
20260510145704 62 0 0.0 2.0 0.00 0.00 0.00 34 1014.5
20260510145605 62 0 0.0 2.0 0.00 0.00 0.00 33 1014.5
20260510145505 62 0 0.0 2.0 0.00 0.00 0.00 33 1014.5
20260510145404 62 0 0.0 2.0 0.00 0.00 0.00 33 1014.5
20260510145306 61 0 0.0 2.0 0.00 0.00 0.00 34 1014.4
20260510145105 61 132 1.0 2.0 0.00 0.00 0.00 35 1014.4
20260510145004 61 0 0.0 2.0 0.00 0.00 0.00 36 1014.5
20260510144905 60 0 0.0 2.0 0.00 0.00 0.00 36 1014.4
20260510144804 60 0 0.0 2.0 0.00 0.00 0.00 37 1014.5
20260510144705 60 0 0.0 2.0 0.00 0.00 0.00 37 1014.4
20260510144604 60 0 0.0 2.0 0.00 0.00 0.00 38 1014.5
20260510144404 59 0 0.0 2.0 0.00 0.00 0.00 39 1014.4
20260510144304 59 128 1.0 2.0 0.00 0.00 0.00 39 1014.4
20260510144205 58 135 1.0 2.0 0.00 0.00 0.00 40 1014.5
20260510144104 58 0 0.0 2.0 0.00 0.00 0.00 41 1014.5
20260510144005 58 0 0.0 1.0 0.00 0.00 0.00 41 1014.6
20260510143805 57 0 0.0 1.0 0.00 0.00 0.00 43 1014.5
20260510143704 57 0 0.0 1.0 0.00 0.00 0.00 43 1014.5
20260510143605 56 0 0.0 2.0 0.00 0.00 0.00 44 1014.5
20260510143504 56 0 0.0 2.0 0.00 0.00 0.00 45 1014.6
20260510143004 55 0 0.0 2.0 0.00 0.00 0.00 47 1014.4
20260510142905 55 0 0.0 2.0 0.00 0.00 0.00 47 1014.5
20260510142804 55 0 0.0 2.0 0.00 0.00 0.00 47 1014.5
20260510142705 54 0 0.0 2.0 0.00 0.00 0.00 48 1014.4
20260510142604 54 229 1.0 2.0 0.00 0.00 0.00 48 1014.4
20260510142405 54 0 0.0 2.0 0.00 0.00 0.00 48 1014.5
20260510142205 54 0 0.0 2.0 0.00 0.00 0.00 47 1014.5
20260510142104 54 0 0.0 2.0 0.00 0.00 0.00 47 1014.5
20260510142005 54 0 0.0 2.0 0.00 0.00 0.00 47 1014.5
20260510141905 53 0 0.0 2.0 0.00 0.00 0.00 48 1014.4
20260510141805 53 0 0.0 2.0 0.00 0.00 0.00 48 1014.5
20260510141704 53 0 0.0 2.0 0.00 0.00 0.00 48 1014.5
20260510141504 53 208 1.0 2.0 0.00 0.00 0.00 50 1014.6
20260510141404 53 184 1.0 2.0 0.00 0.00 0.00 50 1014.6
20260510141305 53 141 1.0 2.0 0.00 0.00 0.00 50 1014.6
20260510141204 53 105 1.0 2.0 0.00 0.00 0.00 51 1014.6
20260510141104 53 0 0.0 2.0 0.00 0.00 0.00 51 1014.4
20260510141004 53 0 0.0 2.0 0.00 0.00 0.00 51 1014.5
20260510140904 53 0 0.0 2.0 0.00 0.00 0.00 51 1014.5
20260510140805 52 0 0.0 2.0 0.00 0.00 0.00 52 1014.5
20260510140704 51 0 0.0 2.0 0.00 0.00 0.00 57 1014.5
20260510140604 51 0 0.0 2.0 0.00 0.00 0.00 57 1014.6
20260510140505 51 0 0.0 2.0 0.00 0.00 0.00 57 1014.4
20260510140404 51 0 0.0 2.0 0.00 0.00 0.00 57 1014.5
20260510140304 51 0 0.0 2.0 0.00 0.00 0.00 57 1014.5
20260510140205 51 0 0.0 2.0 0.00 0.00 0.00 57 1014.5
20260510140104 51 0 0.0 2.0 0.00 0.00 0.00 57 1014.5
20260510135905 50 0 0.0 3.0 0.00 0.00 0.00 57 1014.4
20260510135804 50 0 0.0 3.0 0.00 0.00 0.00 57 1014.4
20260510135704 50 0 0.0 3.0 0.00 0.00 0.00 58 1014.4
20260510135604 49 114 1.0 3.0 0.00 0.00 0.00 58 1014.4
20260510135504 49 114 1.0 3.0 0.00 0.00 0.00 58 1014.4
20260510135306 49 106 1.0 3.0 0.00 0.00 0.00 59 1014.4
20260510135204 48 103 1.0 3.0 0.00 0.00 0.00 59 1014.4
20260510135105 48 0 0.0 3.0 0.00 0.00 0.00 59 1014.4
20260510135004 48 96 2.0 3.0 0.00 0.00 0.00 59 1014.4
20260510134805 47 94 2.0 2.0 0.00 0.00 0.00 60 1014.4
20260510134605 47 95 1.0 2.0 0.00 0.00 0.00 61 1014.4
20260510134505 47 0 0.0 2.0 0.00 0.00 0.00 61 1014.4
20260510134405 46 0 0.0 2.0 0.00 0.00 0.00 62 1014.4
20260510134304 46 0 0.0 2.0 0.00 0.00 0.00 63 1014.4
20260510134204 46 0 0.0 2.0 0.00 0.00 0.00 63 1014.4
20260510134105 46 0 0.0 3.0 0.00 0.00 0.00 63 1014.3
20260510134004 45 0 0.0 3.0 0.00 0.00 0.00 64 1014.3
20260510133905 45 0 0.0 3.0 0.00 0.00 0.00 64 1014.4
20260510133806 45 0 0.0 3.0 0.00 0.00 0.00 64 1014.3
20260510133704 45 0 0.0 3.0 0.00 0.00 0.00 64 1014.3
20260510133605 44 0 0.0 3.0 0.00 0.00 0.00 64 1014.4
20260510133505 44 0 0.0 3.0 0.00 0.00 0.00 65 1014.4
20260510133404 44 0 0.0 3.0 0.00 0.00 0.00 65 1014.2
20260510133305 44 0 0.0 3.0 0.00 0.00 0.00 65 1014.3
20260510133204 44 90 2.0 3.0 0.00 0.00 0.00 66 1014.2
20260510133104 44 90 1.0 3.0 0.00 0.00 0.00 66 1014.2
20260510132904 43 90 2.0 3.0 0.00 0.00 0.00 67 1014.1
20260510132805 43 91 2.0 2.0 0.00 0.00 0.00 68 1014.2
20260510132704 43 92 1.0 2.0 0.00 0.00 0.00 68 1014.2
20260510132604 43 94 2.0 2.0 0.00 0.00 0.00 68 1014.2
20260510132505 42 99 1.0 2.0 0.00 0.00 0.00 68 1014.2
20260510132404 42 0 0.0 2.0 0.00 0.00 0.00 68 1014.2
20260510132306 42 0 0.0 2.0 0.00 0.00 0.00 68 1014.3
20260510132204 42 108 1.0 2.0 0.00 0.00 0.00 68 1014.2
20260510132104 42 0 0.0 1.0 0.00 0.00 0.00 68 1014.1
20260510132004 41 0 0.0 1.0 0.00 0.00 0.00 68 1014.2
20260510131904 41 0 0.0 1.0 0.00 0.00 0.00 68 1014.2
20260510131804 41 0 0.0 1.0 0.00 0.00 0.00 68 1014.2
20260510131704 41 0 0.0 1.0 0.00 0.00 0.00 68 1014.1
20260510131604 41 0 0.0 1.0 0.00 0.00 0.00 68 1014.1
20260510131504 41 0 0.0 1.0 0.00 0.00 0.00 68 1014.1
20260510131404 41 0 0.0 1.0 0.00 0.00 0.00 68 1014.2
20260510131304 40 0 0.0 1.0 0.00 0.00 0.00 68 1014.1
20260510131204 40 0 0.0 1.0 0.00 0.00 0.00 68 1014.1
20260510131104 40 0 0.0 1.0 0.00 0.00 0.00 68 1014.1
20260510131004 40 0 0.0 1.0 0.00 0.00 0.00 68 1014.2
20260510130904 40 0 0.0 1.0 0.00 0.00 0.00 68 1014.0
20260510130805 40 0 0.0 1.0 0.00 0.00 0.00 68 1014.2
20260510130705 40 0 0.0 1.0 0.00 0.00 0.00 69 1014.2
20260510130604 40 0 0.0 1.0 0.00 0.00 0.00 69 1014.3
20260510130405 40 0 0.0 1.0 0.00 0.00 0.00 69 1014.2
20260510130304 40 0 0.0 1.0 0.00 0.00 0.00 69 1014.1
20260510130205 40 0 0.0 1.0 0.00 0.00 0.00 69 1014.2
20260510130104 40 0 0.0 2.0 0.00 0.00 0.00 69 1014.3
20260510130004 40 0 0.0 2.0 0.00 0.00 0.00 68 1014.3
20260510125905 40 0 0.0 2.0 0.00 0.00 0.00 69 1014.3
20260510125804 39 0 0.0 2.0 0.00 0.00 0.00 68 1014.2
20260510125704 39 0 0.0 2.0 0.00 0.00 0.00 68 1014.2
20260510125604 39 0 0.0 2.0 0.00 0.00 0.00 68 1014.2
20260510125504 40 0 0.0 2.0 0.00 0.00 0.00 68 1014.2
20260510125404 39 0 0.0 2.0 0.00 0.00 0.00 68 1014.2
20260510125307 40 0 0.0 2.0 0.00 0.00 0.00 68 1014.2
20260510125204 40 0 0.0 2.0 0.00 0.00 0.00 68 1014.2
20260510125105 40 0 0.0 2.0 0.00 0.00 0.00 68 1014.1
20260510125004 40 0 0.0 1.0 0.00 0.00 0.00 68 1014.1
20260510124905 40 0 0.0 2.0 0.00 0.00 0.00 68 1014.1
20260510124605 40 0 0.0 2.0 0.00 0.00 0.00 67 1014.1
20260510124504 40 0 0.0 2.0 0.00 0.00 0.00 66 1014.1
20260510124404 40 0 0.0 2.0 0.00 0.00 0.00 66 1014.2
20260510124204 40 0 0.0 2.0 0.00 0.00 0.00 66 1014.2
20260510124005 40 0 0.0 2.0 0.00 0.00 0.00 66 1014.0
20260510123904 40 0 0.0 2.0 0.00 0.00 0.00 66 1014.1
20260510123804 40 0 0.0 2.0 0.00 0.00 0.00 66 1014.2
20260510123705 40 0 0.0 2.0 0.00 0.00 0.00 66 1014.1
20260510123604 40 0 0.0 1.0 0.00 0.00 0.00 66 1014.1
20260510123505 40 0 0.0 1.0 0.00 0.00 0.00 66 1014.1
20260510123404 40 0 0.0 4.0 0.00 0.00 0.00 66 1014.1
20260510123205 39 0 0.0 4.0 0.00 0.00 0.00 66 1014.2
20260510123104 39 0 0.0 4.0 0.00 0.00 0.00 66 1014.2
20260510123004 39 0 0.0 4.0 0.00 0.00 0.00 65 1014.2
20260510122904 39 0 0.0 4.0 0.00 0.00 0.00 65 1014.1
20260510122804 39 0 0.0 4.0 0.00 0.00 0.00 65 1014.3
20260510122704 39 0 0.0 4.0 0.00 0.00 0.00 65 1014.2
20260510122506 39 0 0.0 4.0 0.00 0.00 0.00 65 1014.2
20260510122404 39 90 3.0 4.0 0.00 0.00 0.00 64 1014.1
20260510122204 39 94 3.0 4.0 0.00 0.00 0.00 64 1014.2
20260510122005 39 94 3.0 4.0 0.00 0.00 0.00 64 1014.2
20260510121905 39 94 3.0 4.0 0.00 0.00 0.00 64 1014.1
20260510121804 39 95 3.0 4.0 0.00 0.00 0.00 64 1014.1
20260510121704 39 96 3.0 4.0 0.00 0.00 0.00 64 1014.1
20260510121604 39 97 3.0 4.0 0.00 0.00 0.00 64 1014.2
20260510121504 40 97 2.0 3.0 0.00 0.00 0.00 64 1014.0
20260510121405 39 0 0.0 3.0 0.00 0.00 0.00 64 1014.0
20260510121304 39 0 0.0 3.0 0.00 0.00 0.00 64 1014.0
20260510121204 39 90 2.0 3.0 0.00 0.00 0.00 64 1014.1
20260510121104 39 90 2.0 2.0 0.00 0.00 0.00 64 1014.0
20260510121004 39 90 1.0 2.0 0.00 0.00 0.00 64 1014.1
20260510120905 39 90 1.0 2.0 0.00 0.00 0.00 64 1014.1
20260510120804 39 0 0.0 2.0 0.00 0.00 0.00 64 1014.0
20260510120704 40 0 0.0 2.0 0.00 0.00 0.00 64 1014.1
20260510120504 40 0 0.0 1.0 0.00 0.00 0.00 63 1014.0
20260510120404 40 0 0.0 1.0 0.00 0.00 0.00 63 1014.1
20260510120204 40 0 0.0 1.0 0.00 0.00 0.00 63 1014.0
20260510120105 40 0 0.0 1.0 0.00 0.00 0.00 63 1014.0
20260510120004 40 0 0.0 2.0 0.00 0.00 0.00 63 1014.0
20260510115904 40 0 0.0 2.0 0.00 0.00 0.00 63 1014.0
20260510115804 40 0 0.0 2.0 0.00 0.00 0.00 63 1013.9
20260510115704 40 0 0.0 2.0 0.00 0.00 0.00 63 1013.9
20260510115605 40 0 0.0 2.0 0.00 0.00 0.00 63 1014.1
20260510115504 40 0 0.0 2.0 0.00 0.00 0.00 63 1014.1
20260510115306 40 0 0.0 2.0 0.00 0.00 0.00 62 1014.1
20260510115105 41 0 0.0 2.0 0.00 0.00 0.00 62 1014.0
20260510115004 41 126 1.0 2.0 0.00 0.00 0.00 62 1014.1
20260510114904 41 0 0.0 2.0 0.00 0.00 0.00 62 1014.1
20260510114805 41 0 0.0 2.0 0.00 0.00 0.00 61 1014.0
20260510114705 41 0 0.0 2.0 0.00 0.00 0.00 62 1014.0
20260510114604 41 0 0.0 2.0 0.00 0.00 0.00 62 1014.0
20260510114505 41 0 0.0 1.0 0.00 0.00 0.00 62 1014.0
20260510114404 41 0 0.0 2.0 0.00 0.00 0.00 61 1014.0
20260510114304 41 0 0.0 2.0 0.00 0.00 0.00 60 1013.9
20260510114104 41 0 0.0 2.0 0.00 0.00 0.00 60 1014.0
20260510114005 41 0 0.0 2.0 0.00 0.00 0.00 59 1013.9
20260510113904 41 0 0.0 2.0 0.00 0.00 0.00 59 1013.9
20260510113804 42 0 0.0 2.0 0.00 0.00 0.00 59 1013.9
20260510113704 42 0 0.0 2.0 0.00 0.00 0.00 58 1014.0
20260510113605 42 0 0.0 2.0 0.00 0.00 0.00 58 1013.9
20260510113504 42 0 0.0 2.0 0.00 0.00 0.00 58 1013.9
20260510113404 42 0 0.0 2.0 0.00 0.00 0.00 58 1014.0
20260510113204 43 0 0.0 2.0 0.00 0.00 0.00 57 1013.9
20260510113104 43 0 0.0 2.0 0.00 0.00 0.00 57 1014.0
20260510113005 43 0 0.0 2.0 0.00 0.00 0.00 57 1014.0
20260510112904 43 0 0.0 2.0 0.00 0.00 0.00 57 1014.0
20260510112805 43 0 0.0 1.0 0.00 0.00 0.00 56 1013.9
20260510112704 43 0 0.0 2.0 0.00 0.00 0.00 56 1013.9
20260510112604 43 0 0.0 2.0 0.00 0.00 0.00 56 1014.1
20260510112505 43 0 0.0 2.0 0.00 0.00 0.00 56 1014.0
20260510112404 43 0 0.0 2.0 0.00 0.00 0.00 56 1014.0
20260510112306 43 0 0.0 2.0 0.00 0.00 0.00 56 1013.9
20260510112205 42 0 0.0 2.0 0.00 0.00 0.00 56 1013.9
20260510112104 43 0 0.0 2.0 0.00 0.00 0.00 57 1013.9
20260510112004 43 0 0.0 2.0 0.00 0.00 0.00 56 1014.0
20260510111904 43 0 0.0 2.0 0.00 0.00 0.00 56 1013.9
20260510111804 43 0 0.0 2.0 0.00 0.00 0.00 56 1013.9
20260510111704 43 0 0.0 2.0 0.00 0.00 0.00 56 1013.9
20260510111604 43 0 0.0 1.0 0.00 0.00 0.00 55 1013.9
20260510111504 43 0 0.0 1.0 0.00 0.00 0.00 55 1014.0
20260510111404 44 0 0.0 1.0 0.00 0.00 0.00 55 1013.9
20260510111304 44 0 0.0 1.0 0.00 0.00 0.00 55 1013.9
20260510111205 44 0 0.0 1.0 0.00 0.00 0.00 55 1013.9
20260510111104 44 0 0.0 1.0 0.00 0.00 0.00 55 1013.9
20260510111004 44 0 0.0 1.0 0.00 0.00 0.00 55 1013.9
20260510110904 44 0 0.0 1.0 0.00 0.00 0.00 55 1013.9
20260510110705 43 0 0.0 1.0 0.00 0.00 0.00 56 1013.9
20260510110604 43 0 0.0 1.0 0.00 0.00 0.00 56 1013.9
20260510110504 43 0 0.0 1.0 0.00 0.00 0.00 56 1013.9
20260510110404 43 0 0.0 1.0 0.00 0.00 0.00 56 1013.9
20260510110304 43 0 0.0 1.0 0.00 0.00 0.00 56 1014.0
20260510110205 43 0 0.0 1.0 0.00 0.00 0.00 56 1014.0
20260510110005 43 0 0.0 1.0 0.00 0.00 0.00 56 1013.9
20260510105804 43 0 0.0 1.0 0.00 0.00 0.00 56 1013.9
20260510105605 43 0 0.0 1.0 0.00 0.00 0.00 56 1013.9
20260510105504 43 0 0.0 1.0 0.00 0.00 0.00 55 1013.9
20260510105405 43 0 0.0 2.0 0.00 0.00 0.00 55 1013.9
20260510105204 43 0 0.0 2.0 0.00 0.00 0.00 54 1013.8
20260510105104 43 0 0.0 2.0 0.00 0.00 0.00 53 1013.9
20260510105004 43 0 0.0 2.0 0.00 0.00 0.00 53 1013.8
20260510104905 44 0 0.0 2.0 0.00 0.00 0.00 52 1013.9
20260510104804 44 0 0.0 2.0 0.00 0.00 0.00 52 1013.9
20260510104604 44 0 0.0 2.0 0.00 0.00 0.00 51 1013.8
20260510104504 45 0 0.0 2.0 0.00 0.00 0.00 51 1013.8
20260510104405 45 0 0.0 2.0 0.00 0.00 0.00 51 1013.9
20260510104304 45 0 0.0 2.0 0.00 0.00 0.00 51 1013.8
20260510104205 45 0 0.0 3.0 0.00 0.00 0.00 51 1013.7
20260510104104 45 0 0.0 3.0 0.00 0.00 0.00 51 1013.8
20260510104005 46 0 0.0 4.0 0.00 0.00 0.00 52 1013.8
20260510103904 46 0 0.0 4.0 0.00 0.00 0.00 52 1013.8
20260510103804 46 0 0.0 4.0 0.00 0.00 0.00 52 1013.7
20260510103704 45 0 0.0 4.0 0.00 0.00 0.00 52 1013.7
20260510103604 45 0 0.0 4.0 0.00 0.00 0.00 53 1013.7
20260510103404 45 0 0.0 4.0 0.00 0.00 0.00 54 1013.8
20260510103304 45 96 2.0 4.0 0.00 0.00 0.00 54 1013.7
20260510103205 44 97 2.0 4.0 0.00 0.00 0.00 55 1013.7
20260510103104 44 98 2.0 4.0 0.00 0.00 0.00 55 1013.7
20260510103004 44 100 2.0 4.0 0.00 0.00 0.00 55 1013.6
20260510102904 44 103 2.0 4.0 0.00 0.00 0.00 55 1013.7
20260510102804 44 109 2.0 2.0 0.00 0.00 0.00 55 1013.6
20260510102404 43 0 0.0 1.0 0.00 0.00 0.00 53 1013.6
20260510102306 44 0 0.0 1.0 0.00 0.00 0.00 53 1013.7
20260510102104 44 0 0.0 2.0 0.00 0.00 0.00 53 1013.6
20260510102004 44 0 0.0 2.0 0.00 0.00 0.00 53 1013.7
20260510101904 44 0 0.0 2.0 0.00 0.00 0.00 52 1013.7
20260510101804 44 0 0.0 2.0 0.00 0.00 0.00 52 1013.6
20260510101704 44 0 0.0 2.0 0.00 0.00 0.00 52 1013.6
20260510101605 44 0 0.0 2.0 0.00 0.00 0.00 51 1013.6
20260510101504 44 0 0.0 2.0 0.00 0.00 0.00 51 1013.6
20260510101404 45 0 0.0 2.0 0.00 0.00 0.00 50 1013.6
20260510101304 45 0 0.0 2.0 0.00 0.00 0.00 50 1013.6
20260510101204 45 125 1.0 2.0 0.00 0.00 0.00 49 1013.5
20260510101104 45 0 0.0 2.0 0.00 0.00 0.00 49 1013.6
20260510101004 45 0 0.0 2.0 0.00 0.00 0.00 49 1013.5
20260510100904 46 0 0.0 2.0 0.00 0.00 0.00 49 1013.5
20260510100804 46 0 0.0 2.0 0.00 0.00 0.00 48 1013.6
20260510100704 46 0 0.0 2.0 0.00 0.00 0.00 47 1013.6
20260510100504 46 0 0.0 2.0 0.00 0.00 0.00 47 1013.7
20260510100404 46 0 0.0 2.0 0.00 0.00 0.00 47 1013.7
20260510100304 46 0 0.0 2.0 0.00 0.00 0.00 47 1013.7
20260510100204 46 0 0.0 2.0 0.00 0.00 0.00 47 1013.8
20260510100104 46 0 0.0 2.0 0.00 0.00 0.00 47 1013.7
20260510100005 46 0 0.0 2.0 0.00 0.00 0.00 47 1013.7
20260510095904 46 0 0.0 2.0 0.00 0.00 0.00 47 1013.7
20260510095804 46 0 0.0 2.0 0.00 0.00 0.00 47 1013.8
20260510095704 46 0 0.0 2.0 0.00 0.00 0.00 47 1013.7
20260510095604 46 0 0.0 3.0 0.00 0.00 0.00 47 1013.6
20260510095504 46 0 0.0 4.0 0.00 0.00 0.00 47 1013.7
20260510095404 47 0 0.0 4.0 0.00 0.00 0.00 47 1013.6
20260510095305 47 0 0.0 4.0 0.00 0.00 0.00 47 1013.6
20260510095204 47 0 0.0 4.0 0.00 0.00 0.00 47 1013.6
20260510095104 47 0 0.0 4.0 0.00 0.00 0.00 47 1013.7
20260510095005 47 124 1.0 4.0 0.00 0.00 0.00 47 1013.6
20260510094904 46 122 1.0 4.0 0.00 0.00 0.00 47 1013.6
20260510094705 46 0 0.0 4.0 0.00 0.00 0.00 47 1013.6
20260510094604 46 105 1.0 4.0 0.00 0.00 0.00 47 1013.6
20260510094304 46 100 2.0 4.0 0.00 0.00 0.00 47 1013.6
20260510094204 46 97 1.0 4.0 0.00 0.00 0.00 47 1013.6
20260510094104 46 95 1.0 4.0 0.00 0.00 0.00 47 1013.6
20260510094004 46 0 0.0 4.0 0.00 0.00 0.00 47 1013.5
20260510093904 46 96 2.0 4.0 0.00 0.00 0.00 47 1013.6
20260510093804 46 97 3.0 4.0 0.00 0.00 0.00 48 1013.5
20260510093704 46 100 3.0 4.0 0.00 0.00 0.00 48 1013.6
20260510093604 46 103 2.0 4.0 0.00 0.00 0.00 48 1013.6
20260510093504 46 105 2.0 4.0 0.00 0.00 0.00 48 1013.6
20260510093304 46 111 1.0 4.0 0.00 0.00 0.00 48 1013.5
20260510093204 46 110 1.0 4.0 0.00 0.00 0.00 48 1013.5
20260510093104 46 108 2.0 4.0 0.00 0.00 0.00 49 1013.6
20260510093004 46 113 1.0 4.0 0.00 0.00 0.00 49 1013.5
20260510092804 46 112 1.0 3.0 0.00 0.00 0.00 49 1013.5
20260510092704 46 109 1.0 4.0 0.00 0.00 0.00 49 1013.5
20260510092605 46 111 1.0 4.0 0.00 0.00 0.00 49 1013.5
20260510092504 46 112 1.0 4.0 0.00 0.00 0.00 50 1013.6
20260510092404 46 113 1.0 4.0 0.00 0.00 0.00 50 1013.5
20260510092306 46 0 0.0 4.0 0.00 0.00 0.00 50 1013.5
20260510092204 46 116 1.0 4.0 0.00 0.00 0.00 50 1013.5
20260510092104 45 0 0.0 4.0 0.00 0.00 0.00 50 1013.5
20260510092004 45 120 2.0 4.0 0.00 0.00 0.00 50 1013.5
20260510091904 45 126 2.0 4.0 0.00 0.00 0.00 50 1013.5
20260510091804 45 132 2.0 4.0 0.00 0.00 0.00 50 1013.6
20260510091704 45 135 2.0 4.0 0.00 0.00 0.00 50 1013.5
20260510091604 45 0 0.0 2.0 0.00 0.00 0.00 50 1013.5
20260510091504 45 0 0.0 2.0 0.00 0.00 0.00 50 1013.4
20260510091404 45 0 0.0 2.0 0.00 0.00 0.00 50 1013.4
20260510091304 45 0 0.0 2.0 0.00 0.00 0.00 50 1013.4
20260510091204 44 0 0.0 2.0 0.00 0.00 0.00 50 1013.6
20260510091005 44 0 0.0 2.0 0.00 0.00 0.00 51 1013.5
20260510090904 44 0 0.0 2.0 0.00 0.00 0.00 51 1013.5
20260510090805 45 90 1.0 2.0 0.00 0.00 0.00 50 1013.5
20260510090604 46 0 0.0 1.0 0.00 0.00 0.00 47 1013.4
20260510090404 46 0 0.0 1.0 0.00 0.00 0.00 47 1013.5
20260510090204 46 0 0.0 1.0 0.00 0.00 0.00 47 1013.5
20260510085905 46 0 0.0 1.0 0.00 0.00 0.00 47 1013.6
20260510085804 46 0 0.0 1.0 0.00 0.00 0.00 47 1013.7
20260510085705 46 0 0.0 1.0 0.00 0.00 0.00 48 1013.7
20260510085604 46 0 0.0 2.0 0.00 0.00 0.00 47 1013.6
20260510085504 46 0 0.0 2.0 0.00 0.00 0.00 47 1013.7
20260510085404 47 0 0.0 2.0 0.00 0.00 0.00 47 1013.6
20260510085306 47 0 0.0 2.0 0.00 0.00 0.00 47 1013.7
20260510085204 47 0 0.0 2.0 0.00 0.00 0.00 46 1013.7
20260510085104 47 0 0.0 2.0 0.00 0.00 0.00 46 1013.6
20260510084804 47 0 0.0 2.0 0.00 0.00 0.00 46 1013.5
20260510084704 46 0 0.0 2.0 0.00 0.00 0.00 46 1013.6
20260510084604 46 0 0.0 2.0 0.00 0.00 0.00 46 1013.7
20260510084504 46 0 0.0 1.0 0.00 0.00 0.00 46 1013.7
20260510084304 47 0 0.0 1.0 0.00 0.00 0.00 46 1013.6
20260510084204 47 0 0.0 1.0 0.00 0.00 0.00 46 1013.6
20260510084104 47 0 0.0 1.0 0.00 0.00 0.00 45 1013.5
20260510084004 47 0 0.0 1.0 0.00 0.00 0.00 45 1013.6
20260510083904 47 0 0.0 1.0 0.00 0.00 0.00 45 1013.6
20260510083804 47 0 0.0 2.0 0.00 0.00 0.00 45 1013.6
20260510083704 47 0 0.0 2.0 0.00 0.00 0.00 44 1013.6
20260510083504 48 0 0.0 2.0 0.00 0.00 0.00 44 1013.6
20260510083404 48 0 0.0 2.0 0.00 0.00 0.00 44 1013.6
20260510083204 48 0 0.0 2.0 0.00 0.00 0.00 44 1013.6
20260510083104 48 0 0.0 2.0 0.00 0.00 0.00 43 1013.6
20260510083004 48 0 0.0 2.0 0.00 0.00 0.00 43 1013.6
20260510082904 48 0 0.0 2.0 0.00 0.00 0.00 43 1013.5
20260510082804 49 90 1.0 2.0 0.00 0.00 0.00 43 1013.6
20260510082704 49 93 2.0 2.0 0.00 0.00 0.00 43 1013.5
20260510082605 49 94 1.0 2.0 0.00 0.00 0.00 43 1013.4
20260510082504 49 94 1.0 2.0 0.00 0.00 0.00 43 1013.5
20260510082306 49 100 1.0 2.0 0.00 0.00 0.00 43 1013.5
20260510082204 49 107 1.0 2.0 0.00 0.00 0.00 43 1013.6
20260510082004 49 0 0.0 2.0 0.00 0.00 0.00 43 1013.5
20260510081904 49 0 0.0 2.0 0.00 0.00 0.00 43 1013.6
20260510081804 49 0 0.0 2.0 0.00 0.00 0.00 43 1013.7
20260510081704 49 0 0.0 2.0 0.00 0.00 0.00 43 1013.5
20260510081605 49 99 1.0 3.0 0.00 0.00 0.00 43 1013.5
20260510081504 49 0 0.0 3.0 0.00 0.00 0.00 43 1013.6
20260510081404 49 0 0.0 3.0 0.00 0.00 0.00 43 1013.5
20260510081304 49 0 0.0 3.0 0.00 0.00 0.00 43 1013.5
20260510081104 49 90 1.0 3.0 0.00 0.00 0.00 44 1013.6
20260510081005 49 90 1.0 3.0 0.00 0.00 0.00 43 1013.5
20260510080904 49 90 2.0 3.0 0.00 0.00 0.00 43 1013.5
20260510080704 50 90 2.0 3.0 0.00 0.00 0.00 44 1013.5
20260510080604 50 90 2.0 3.0 0.00 0.00 0.00 44 1013.5
20260510080404 50 90 2.0 3.0 0.00 0.00 0.00 44 1013.5
20260510080304 50 90 2.0 3.0 0.00 0.00 0.00 44 1013.4
20260510080204 50 90 2.0 3.0 0.00 0.00 0.00 44 1013.5
20260510080104 50 90 2.0 4.0 0.00 0.00 0.00 44 1013.5
20260510080004 50 90 2.0 4.0 0.00 0.00 0.00 44 1013.4
20260510075804 50 0 0.0 4.0 0.00 0.00 0.00 44 1013.5
20260510075704 50 90 1.0 4.0 0.00 0.00 0.00 43 1013.4
20260510075605 50 90 1.0 4.0 0.00 0.00 0.00 43 1013.4
20260510075504 50 90 1.0 4.0 0.00 0.00 0.00 43 1013.5
20260510075404 50 90 2.0 4.0 0.00 0.00 0.00 44 1013.4
20260510075205 50 90 2.0 4.0 0.00 0.00 0.00 44 1013.4
20260510075104 50 91 2.0 4.0 0.00 0.00 0.00 44 1013.5
20260510075005 50 93 2.0 4.0 0.00 0.00 0.00 44 1013.5
20260510074904 49 94 2.0 4.0 0.00 0.00 0.00 44 1013.4
20260510074804 50 93 2.0 4.0 0.00 0.00 0.00 44 1013.6
20260510074704 50 93 2.0 4.0 0.00 0.00 0.00 44 1013.7
20260510074604 50 94 2.0 4.0 0.00 0.00 0.00 44 1013.6
20260510074504 50 94 2.0 4.0 0.00 0.00 0.00 44 1013.6
20260510074404 50 96 3.0 4.0 0.00 0.00 0.00 44 1013.6
20260510074304 49 99 2.0 4.0 0.00 0.00 0.00 44 1013.6
20260510074204 49 104 1.0 4.0 0.00 0.00 0.00 44 1013.6
20260510074104 49 0 0.0 4.0 0.00 0.00 0.00 45 1013.6
20260510073904 49 109 2.0 4.0 0.00 0.00 0.00 45 1013.6
20260510073804 49 109 2.0 4.0 0.00 0.00 0.00 45 1013.6
20260510073604 49 110 1.0 3.0 0.00 0.00 0.00 45 1013.7
20260510073504 49 0 0.0 3.0 0.00 0.00 0.00 45 1013.7
20260510073304 49 0 0.0 3.0 0.00 0.00 0.00 45 1013.7
20260510073204 49 99 1.0 3.0 0.00 0.00 0.00 45 1013.7
20260510073104 49 95 1.0 3.0 0.00 0.00 0.00 44 1013.6
20260510073004 49 90 1.0 3.0 0.00 0.00 0.00 44 1013.8
20260510072804 49 92 1.0 3.0 0.00 0.00 0.00 43 1013.6
20260510072604 49 101 1.0 3.0 0.00 0.00 0.00 43 1013.7
20260510072504 49 107 1.0 3.0 0.00 0.00 0.00 43 1013.7
20260510072404 49 111 1.0 3.0 0.00 0.00 0.00 43 1013.7
20260510072305 49 115 1.0 3.0 0.00 0.00 0.00 43 1013.7
20260510072205 50 118 1.0 3.0 0.00 0.00 0.00 43 1013.6
20260510072104 50 118 2.0 3.0 0.00 0.00 0.00 43 1013.7
20260510071904 50 118 1.0 3.0 0.00 0.00 0.00 43 1013.6
20260510071804 50 114 1.0 3.0 0.00 0.00 0.00 43 1013.7
20260510071704 50 111 1.0 3.0 0.00 0.00 0.00 43 1013.7
20260510071604 50 0 0.0 3.0 0.00 0.00 0.00 43 1013.7
20260510071404 50 0 0.0 3.0 0.00 0.00 0.00 43 1013.7
20260510071304 50 0 0.0 3.0 0.00 0.00 0.00 43 1013.7
20260510071204 50 90 2.0 3.0 0.00 0.00 0.00 43 1013.6
20260510071104 50 90 2.0 2.0 0.00 0.00 0.00 43 1013.6
20260510071004 50 90 1.0 2.0 0.00 0.00 0.00 43 1013.6
20260510070804 50 0 0.0 2.0 0.00 0.00 0.00 43 1013.6
20260510070704 51 0 0.0 2.0 0.00 0.00 0.00 43 1013.6
20260510070403 51 0 0.0 2.0 0.00 0.00 0.00 43 1013.6
20260510070304 51 0 0.0 2.0 0.00 0.00 0.00 43 1013.5
20260510070204 51 0 0.0 2.0 0.00 0.00 0.00 43 1013.6
20260510070104 51 0 0.0 2.0 0.00 0.00 0.00 43 1013.5
20260510070006 51 0 0.0 2.0 0.00 0.00 0.00 43 1013.5
20260510065904 51 0 0.0 2.0 0.00 0.00 0.00 43 1013.5
20260510065704 51 0 0.0 2.0 0.00 0.00 0.00 42 1013.4
20260510065604 51 0 0.0 2.0 0.00 0.00 0.00 42 1013.5
20260510065505 51 0 0.0 2.0 0.00 0.00 0.00 42 1013.4
20260510065205 51 0 0.0 2.0 0.00 0.00 0.00 42 1013.4
20260510065104 51 0 0.0 2.0 0.00 0.00 0.00 42 1013.5
20260510065004 51 0 0.0 2.0 0.00 0.00 0.00 42 1013.4
20260510064904 51 0 0.0 2.0 0.00 0.00 0.00 42 1013.4
20260510064804 51 0 0.0 2.0 0.00 0.00 0.00 42 1013.2
20260510064704 51 0 0.0 2.0 0.00 0.00 0.00 42 1013.3
20260510064604 51 0 0.0 2.0 0.00 0.00 0.00 42 1013.4
20260510064504 51 0 0.0 2.0 0.00 0.00 0.00 42 1013.4
20260510064304 51 0 0.0 2.0 0.00 0.00 0.00 42 1013.4
20260510064204 51 0 0.0 2.0 0.00 0.00 0.00 42 1013.3
20260510064104 51 0 0.0 2.0 0.00 0.00 0.00 42 1013.3
20260510064004 52 103 1.0 2.0 0.00 0.00 0.00 41 1013.3
20260510063903 52 108 1.0 2.0 0.00 0.00 0.00 40 1013.4
20260510063804 52 0 0.0 2.0 0.00 0.00 0.00 40 1013.3
20260510063604 52 0 0.0 2.0 0.00 0.00 0.00 38 1013.3
20260510063504 52 0 0.0 2.0 0.00 0.00 0.00 38 1013.3
20260510063405 52 0 0.0 2.0 0.00 0.00 0.00 37 1013.3
20260510063304 52 0 0.0 2.0 0.00 0.00 0.00 37 1013.2
20260510063204 52 0 0.0 2.0 0.00 0.00 0.00 37 1013.3
20260510063104 52 0 0.0 2.0 0.00 0.00 0.00 37 1013.2
20260510063004 52 0 0.0 2.0 0.00 0.00 0.00 36 1013.3
20260510062905 52 0 0.0 2.0 0.00 0.00 0.00 36 1013.2
20260510062804 52 0 0.0 2.0 0.00 0.00 0.00 35 1013.3
20260510062703 52 0 0.0 2.0 0.00 0.00 0.00 35 1013.2
20260510062504 52 0 0.0 2.0 0.00 0.00 0.00 36 1013.2
20260510062404 52 0 0.0 2.0 0.00 0.00 0.00 37 1013.2
20260510062307 52 113 1.0 2.0 0.00 0.00 0.00 37 1013.1
20260510062204 52 113 1.0 3.0 0.00 0.00 0.00 37 1013.2
20260510062104 52 0 0.0 3.0 0.00 0.00 0.00 37 1013.2
20260510062004 52 0 0.0 3.0 0.00 0.00 0.00 37 1013.2
20260510061904 52 0 0.0 3.0 0.00 0.00 0.00 38 1013.2
20260510061804 52 101 1.0 3.0 0.00 0.00 0.00 38 1013.3
20260510061704 52 0 0.0 3.0 0.00 0.00 0.00 37 1013.2
20260510061605 52 95 1.0 3.0 0.00 0.00 0.00 37 1013.3
20260510061504 52 94 1.0 3.0 0.00 0.00 0.00 37 1013.3
20260510061405 52 95 1.0 3.0 0.00 0.00 0.00 37 1013.2
20260510061304 52 98 1.0 3.0 0.00 0.00 0.00 37 1013.2
20260510061205 52 103 1.0 2.0 0.00 0.00 0.00 37 1013.3
20260510061104 52 0 0.0 2.0 0.00 0.00 0.00 37 1013.2
20260510061004 53 0 0.0 2.0 0.00 0.00 0.00 37 1013.2
20260510060903 53 118 1.0 2.0 0.00 0.00 0.00 37 1013.2
20260510060804 53 127 2.0 2.0 0.00 0.00 0.00 37 1013.3
20260510060604 53 0 0.0 1.0 0.00 0.00 0.00 34 1013.3
20260510060504 53 0 0.0 2.0 0.00 0.00 0.00 34 1013.2
20260510060404 53 0 0.0 2.0 0.00 0.00 0.00 34 1013.3
20260510060303 53 0 0.0 2.0 0.00 0.00 0.00 34 1013.2
20260510060204 53 0 0.0 2.0 0.00 0.00 0.00 34 1013.3
20260510060104 53 0 0.0 2.0 0.00 0.00 0.00 34 1013.2
20260510055904 54 0 0.0 3.0 0.00 0.00 0.00 34 1013.2
20260510055804 54 0 0.0 3.0 0.00 0.00 0.00 33 1013.3
20260510055704 54 0 0.0 3.0 0.00 0.00 0.00 33 1013.3
20260510055504 54 0 0.0 3.0 0.00 0.00 0.00 32 1013.3
20260510055404 54 0 0.0 3.0 0.00 0.00 0.00 31 1013.2
20260510055306 54 0 0.0 3.0 0.00 0.00 0.00 31 1013.2
20260510055204 55 109 1.0 3.0 0.00 0.00 0.00 31 1013.3
20260510055104 55 0 0.0 3.0 0.00 0.00 0.00 31 1013.2
20260510055004 55 0 0.0 3.0 0.00 0.00 0.00 31 1013.3
20260510054804 55 90 1.0 2.0 0.00 0.00 0.00 31 1013.2
20260510054703 55 90 2.0 2.0 0.00 0.00 0.00 30 1013.1
20260510054604 55 90 2.0 2.0 0.00 0.00 0.00 29 1013.1
20260510054504 56 92 1.0 2.0 0.00 0.00 0.00 30 1013.2
20260510054404 56 92 1.0 2.0 0.00 0.00 0.00 30 1013.1
20260510054304 56 0 0.0 1.0 0.00 0.00 0.00 30 1013.2
20260510054204 56 0 0.0 2.0 0.00 0.00 0.00 29 1013.1
20260510054104 56 0 0.0 2.0 0.00 0.00 0.00 29 1013.2
20260510054005 56 0 0.0 2.0 0.00 0.00 0.00 28 1013.2
20260510053904 56 0 0.0 2.0 0.00 0.00 0.00 28 1013.1
20260510053804 56 0 0.0 2.0 0.00 0.00 0.00 28 1013.1
20260510053703 56 0 0.0 2.0 0.00 0.00 0.00 27 1013.1
20260510053604 56 0 0.0 2.0 0.00 0.00 0.00 26 1013.1
20260510053404 56 0 0.0 2.0 0.00 0.00 0.00 27 1013.1
20260510053204 57 0 0.0 2.0 0.00 0.00 0.00 27 1013.2
20260510053104 57 0 0.0 2.0 0.00 0.00 0.00 27 1013.1
20260510053003 58 0 0.0 2.0 0.00 0.00 0.00 26 1013.1
20260510052904 58 0 0.0 2.0 0.00 0.00 0.00 25 1013.1
20260510052804 58 0 0.0 2.0 0.00 0.00 0.00 24 1013.1
20260510052703 58 0 0.0 2.0 0.00 0.00 0.00 24 1013.1
20260510052604 58 0 0.0 2.0 0.00 0.00 0.00 24 1013.2
20260510052504 59 0 0.0 2.0 0.00 0.00 0.00 24 1013.2
20260510052306 58 0 0.0 2.0 0.00 0.00 0.00 22 1013.1
20260510052104 58 0 0.0 2.0 0.00 0.00 0.00 23 1013.1
20260510052004 58 0 0.0 2.0 0.00 0.00 0.00 23 1013.1
20260510051903 58 0 0.0 2.0 0.00 0.00 0.00 23 1013.1
20260510051804 57 0 0.0 2.0 0.00 0.00 0.00 23 1013.2
20260510051704 57 0 0.0 2.0 0.00 0.00 0.00 23 1013.1
20260510051603 57 0 0.0 2.0 0.00 0.00 0.00 24 1013.1
20260510051504 57 0 0.0 2.0 0.00 0.00 0.00 25 1013.1
20260510051404 57 0 0.0 2.0 0.00 0.00 0.00 25 1013.1
20260510051305 57 0 0.0 2.0 0.00 0.00 0.00 25 1013.1
20260510051204 57 0 0.0 1.0 0.00 0.00 0.00 27 1013.1
20260510051004 57 0 0.0 1.0 0.00 0.00 0.00 27 1013.1
20260510050904 57 0 0.0 1.0 0.00 0.00 0.00 28 1013.1
20260510050804 57 0 0.0 1.0 0.00 0.00 0.00 27 1013.1
20260510050705 56 0 0.0 1.0 0.00 0.00 0.00 30 1013.1
20260510050604 56 0 0.0 1.0 0.00 0.00 0.00 30 1013.0
20260510050503 56 0 0.0 1.0 0.00 0.00 0.00 30 1013.1
20260510050404 56 0 0.0 1.0 0.00 0.00 0.00 30 1013.1
20260510050304 56 0 0.0 1.0 0.00 0.00 0.00 30 1013.0
20260510050204 56 0 0.0 1.0 0.00 0.00 0.00 30 1013.1
20260510050104 56 0 0.0 1.0 0.00 0.00 0.00 30 1013.1
20260510050004 56 0 0.0 2.0 0.00 0.00 0.00 30 1013.1
20260510045904 56 0 0.0 2.0 0.00 0.00 0.00 29 1013.0
20260510045804 56 0 0.0 2.0 0.00 0.00 0.00 29 1013.0
20260510045704 57 0 0.0 2.0 0.00 0.00 0.00 29 1013.0
20260510045504 57 0 0.0 2.0 0.00 0.00 0.00 28 1013.0
20260510045306 57 0 0.0 2.0 0.00 0.00 0.00 27 1013.0
20260510045204 58 0 0.0 2.0 0.00 0.00 0.00 27 1013.0
20260510045104 58 0 0.0 2.0 0.00 0.00 0.00 27 1012.9
20260510045004 58 0 0.0 2.0 0.00 0.00 0.00 27 1013.0
20260510044904 58 0 0.0 2.0 0.00 0.00 0.00 27 1012.9
20260510044804 58 0 0.0 2.0 0.00 0.00 0.00 26 1013.0
20260510044704 58 0 0.0 2.0 0.00 0.00 0.00 26 1012.9
20260510044605 58 0 0.0 2.0 0.00 0.00 0.00 27 1013.1
20260510044504 58 0 0.0 2.0 0.00 0.00 0.00 27 1012.9
20260510044405 58 0 0.0 2.0 0.00 0.00 0.00 26 1012.9
20260510044304 57 0 0.0 2.0 0.00 0.00 0.00 25 1013.0
20260510044203 57 0 0.0 2.0 0.00 0.00 0.00 26 1013.0
20260510044104 57 0 0.0 2.0 0.00 0.00 0.00 28 1012.9
20260510044004 58 0 0.0 2.0 0.00 0.00 0.00 28 1012.9
20260510043904 58 0 0.0 2.0 0.00 0.00 0.00 27 1013.0
20260510043704 58 0 0.0 2.0 0.00 0.00 0.00 26 1013.0
20260510043604 58 0 0.0 2.0 0.00 0.00 0.00 26 1013.0
20260510043504 58 0 0.0 2.0 0.00 0.00 0.00 26 1013.0
20260510043405 59 139 1.0 2.0 0.00 0.00 0.00 26 1013.0
20260510043304 59 0 0.0 4.0 0.00 0.00 0.00 25 1013.0
20260510043204 59 0 0.0 5.0 0.00 0.00 0.00 25 1013.0
20260510043103 59 0 0.0 5.0 0.00 0.00 0.00 25 1013.0
20260510043004 59 0 0.0 5.0 0.00 0.00 0.00 24 1013.0
20260510042904 59 0 0.0 5.0 0.00 0.00 0.00 24 1012.9
20260510042804 59 0 0.0 5.0 0.00 0.00 0.00 24 1012.9
20260510042704 59 0 0.0 5.0 0.00 0.00 0.00 24 1012.9
20260510042603 59 0 0.0 5.0 0.00 0.00 0.00 24 1013.0
20260510042504 59 0 0.0 5.0 0.00 0.00 0.00 24 1012.9
20260510042404 59 0 0.0 5.0 0.00 0.00 0.00 25 1013.0
20260510042306 60 198 2.0 5.0 0.00 0.00 0.00 26 1012.9
20260510042204 60 205 3.0 5.0 0.00 0.00 0.00 26 1012.9
20260510042103 60 0 0.0 3.0 0.00 0.00 0.00 23 1012.9
20260510041903 60 0 0.0 3.0 0.00 0.00 0.00 22 1012.9
20260510041804 60 200 1.0 3.0 0.00 0.00 0.00 22 1012.8
20260510041704 60 193 1.0 3.0 0.00 0.00 0.00 22 1012.8
20260510041604 60 0 0.0 3.0 0.00 0.00 0.00 23 1012.7
20260510041504 60 0 0.0 3.0 0.00 0.00 0.00 23 1012.7
20260510041404 61 172 1.0 3.0 0.00 0.00 0.00 23 1012.7
20260510041304 61 197 2.0 3.0 0.00 0.00 0.00 23 1012.8
20260510041204 61 189 1.0 2.0 0.00 0.00 0.00 22 1012.6
20260510041104 61 176 1.0 2.0 0.00 0.00 0.00 22 1012.7
20260510041004 61 156 1.0 2.0 0.00 0.00 0.00 23 1012.7
20260510040903 61 0 0.0 2.0 0.00 0.00 0.00 23 1012.7
20260510040804 61 0 0.0 2.0 0.00 0.00 0.00 23 1012.6
20260510040704 62 0 0.0 2.0 0.00 0.00 0.00 19 1012.5
20260510040504 62 0 0.0 2.0 0.00 0.00 0.00 19 1012.6
20260510040404 62 0 0.0 2.0 0.00 0.00 0.00 19 1012.5
20260510040304 62 0 0.0 2.0 0.00 0.00 0.00 19 1012.4
20260510040204 62 0 0.0 2.0 0.00 0.00 0.00 19 1012.4
20260510040103 62 0 0.0 2.0 0.00 0.00 0.00 19 1012.4
20260510040004 62 0 0.0 2.0 0.00 0.00 0.00 20 1012.4
20260510035904 62 270 1.0 2.0 0.00 0.00 0.00 19 1012.4
20260510035803 62 0 0.0 2.0 0.00 0.00 0.00 19 1012.5
20260510035704 62 0 0.0 2.0 0.00 0.00 0.00 18 1012.4
20260510035604 62 0 0.0 2.0 0.00 0.00 0.00 18 1012.4
20260510035504 63 0 0.0 2.0 0.00 0.00 0.00 18 1012.4
20260510035405 63 0 0.0 2.0 0.00 0.00 0.00 18 1012.3
20260510035306 63 0 0.0 2.0 0.00 0.00 0.00 18 1012.4
20260510035104 63 263 2.0 2.0 0.00 0.00 0.00 18 1012.3
20260510034904 64 0 0.0 2.0 0.00 0.00 0.00 17 1012.4
20260510034804 64 0 0.0 2.0 0.00 0.00 0.00 17 1012.3
20260510034704 64 0 0.0 2.0 0.00 0.00 0.00 17 1012.3
20260510034504 65 248 1.0 2.0 0.00 0.00 0.00 16 1012.3
20260510034404 65 248 1.0 2.0 0.00 0.00 0.00 16 1012.3
20260510034304 65 0 0.0 2.0 0.00 0.00 0.00 15 1012.3
20260510034204 65 0 0.0 2.0 0.00 0.00 0.00 15 1012.2
20260510034105 65 227 1.0 2.0 0.00 0.00 0.00 15 1012.2
20260510034004 66 0 0.0 2.0 0.00 0.00 0.00 14 1012.3
20260510033904 66 0 0.0 2.0 0.00 0.00 0.00 14 1012.3
20260510033804 66 0 0.0 2.0 0.00 0.00 0.00 13 1012.3
20260510033708 66 0 0.0 2.0 0.00 0.00 0.00 13 1012.3
20260510033604 66 0 0.0 2.0 0.00 0.00 0.00 13 1012.3
20260510033504 66 0 0.0 2.0 0.00 0.00 0.00 13 1012.3
20260510033404 67 0 0.0 2.0 0.00 0.00 0.00 13 1012.1
20260510033204 67 224 1.0 2.0 0.00 0.00 0.00 12 1012.2
20260510033104 67 224 2.0 2.0 0.00 0.00 0.00 12 1012.0
20260510032904 67 223 1.0 2.0 0.00 0.00 0.00 11 1012.2
20260510032803 67 0 0.0 2.0 0.00 0.00 0.00 11 1012.1
20260510032704 67 0 0.0 2.0 0.00 0.00 0.00 10 1012.1
20260510032504 68 0 0.0 2.0 0.00 0.00 0.00 10 1012.1
20260510032404 68 0 0.0 2.0 0.00 0.00 0.00 10 1012.1
20260510032306 68 252 1.0 2.0 0.00 0.00 0.00 10 1012.1
20260510032204 68 0 0.0 2.0 0.00 0.00 0.00 10 1012.0
20260510032103 68 0 0.0 1.0 0.00 0.00 0.00 10 1012.0
20260510032004 68 0 0.0 1.0 0.00 0.00 0.00 10 1012.0
20260510031904 68 0 0.0 1.0 0.00 0.00 0.00 10 1011.9
20260510031804 68 0 0.0 1.0 0.00 0.00 0.00 10 1011.9
20260510031604 68 0 0.0 2.0 0.00 0.00 0.00 10 1011.9
20260510031504 69 0 0.0 2.0 0.00 0.00 0.00 10 1011.9
20260510031404 69 0 0.0 2.0 0.00 0.00 0.00 10 1012.0
20260510031304 69 0 0.0 2.0 0.00 0.00 0.00 10 1011.9
20260510031104 69 0 0.0 2.0 0.00 0.00 0.00 10 1011.9
20260510030904 69 0 0.0 2.0 0.00 0.00 0.00 10 1011.9
20260510030804 70 0 0.0 2.0 0.00 0.00 0.00 10 1011.9
20260510030703 71 48 1.0 2.0 0.00 0.00 0.00 10 1011.8
20260510030604 71 48 1.0 2.0 0.00 0.00 0.00 10 1011.8
20260510030404 71 48 1.0 2.0 0.00 0.00 0.00 10 1011.8
20260510030304 71 48 1.0 2.0 0.00 0.00 0.00 10 1011.7
20260510030204 71 48 1.0 3.0 0.00 0.00 0.00 10 1011.9
20260510030104 71 48 1.0 3.0 0.00 0.00 0.00 10 1011.7
20260510030004 71 48 1.0 3.0 0.00 0.00 0.00 10 1011.7
20260510025904 71 45 1.0 3.0 0.00 0.00 0.00 10 1011.6
20260510025703 72 49 1.0 3.0 0.00 0.00 0.00 10 1011.6
20260510025604 72 49 1.0 3.0 0.00 0.00 0.00 10 1011.5
20260510025504 72 49 1.0 3.0 0.00 0.00 0.00 10 1011.5
20260510025403 72 48 2.0 4.0 0.00 0.00 0.00 10 1011.6
20260510025104 73 44 2.0 4.0 0.00 0.00 0.00 10 1011.7
20260510025003 73 43 1.0 4.0 0.00 0.00 0.00 10 1011.6
20260510024904 73 43 1.0 4.0 0.00 0.00 0.00 10 1011.6
20260510024804 74 40 2.0 4.0 0.00 0.00 0.00 10 1011.6
20260510024704 74 40 2.0 4.0 0.00 0.00 0.00 10 1011.7
20260510024504 74 34 2.0 4.0 0.00 0.00 0.00 10 1011.7
20260510024404 74 33 2.0 4.0 0.00 0.00 0.00 10 1011.7
20260510024304 75 34 2.0 6.0 0.00 0.00 0.00 10 1011.5
20260510024204 75 38 2.0 6.0 0.00 0.00 0.00 10 1011.7
20260510024104 75 34 2.0 6.0 0.00 0.00 0.00 10 1011.7
20260510024004 75 35 2.0 6.0 0.00 0.00 0.00 10 1011.6
20260510023904 76 32 2.0 6.0 0.00 0.00 0.00 10 1011.5
20260510023804 76 27 2.0 6.0 0.00 0.00 0.00 10 1011.6
20260510023704 76 28 2.0 6.0 0.00 0.00 0.00 10 1011.6
20260510023604 76 32 2.0 6.0 0.00 0.00 0.00 10 1011.6
20260510023504 76 30 2.0 6.0 0.00 0.00 0.00 10 1011.5
20260510023405 77 31 2.0 6.0 0.00 0.00 0.00 10 1011.4
20260510023304 77 30 2.0 6.0 0.00 0.00 0.00 10 1011.5
20260510023204 77 25 2.0 5.0 0.00 0.00 0.00 10 1011.4
20260510023104 77 33 2.0 5.0 0.00 0.00 0.00 10 1011.5
20260510023004 78 40 3.0 7.0 0.00 0.00 0.00 10 1011.4
20260510022804 78 52 3.0 7.0 0.00 0.00 0.00 10 1011.5
20260510022704 78 51 3.0 8.0 0.00 0.00 0.00 10 1011.4
20260510022605 78 51 3.0 8.0 0.00 0.00 0.00 10 1011.4
20260510022504 78 49 2.0 8.0 0.00 0.00 0.00 10 1011.4
20260510022306 79 48 2.0 8.0 0.00 0.00 0.00 10 1011.4
20260510022203 79 46 3.0 8.0 0.00 0.00 0.00 10 1011.4
20260510022104 79 44 3.0 8.0 0.00 0.00 0.00 10 1011.4
20260510022004 79 31 4.0 8.0 0.00 0.00 0.00 10 1011.4
20260510021804 79 22 4.0 8.0 0.00 0.00 0.00 10 1011.4
20260510021504 80 40 4.0 7.0 0.00 0.00 0.00 10 1011.4
20260510021404 80 47 4.0 7.0 0.00 0.00 0.00 10 1011.4
20260510021304 80 53 2.0 6.0 0.00 0.00 0.00 10 1011.4
20260510021203 80 64 2.0 6.0 0.00 0.00 0.00 10 1011.4
20260510021104 80 69 2.0 6.0 0.00 0.00 0.00 10 1011.4
20260510021004 80 77 4.0 6.0 0.00 0.00 0.00 10 1011.4
20260510020904 80 80 2.0 5.0 0.00 0.00 0.00 10 1011.4
20260510020703 81 82 3.0 5.0 0.00 0.00 0.00 10 1011.4
20260510020604 81 74 3.0 6.0 0.00 0.00 0.00 10 1011.5
20260510020504 81 65 3.0 6.0 0.00 0.00 0.00 10 1011.3
20260510020304 81 50 3.0 7.0 0.00 0.00 0.00 10 1011.3
20260510020204 81 46 3.0 8.0 0.00 0.00 0.00 10 1011.4
20260510020104 81 42 3.0 8.0 0.00 0.00 0.00 10 1011.4
20260510015904 81 40 2.0 8.0 0.00 0.00 0.00 10 1011.4
20260510015804 81 39 1.0 8.0 0.00 0.00 0.00 10 1011.4
20260510015704 81 39 2.0 8.0 0.00 0.00 0.00 10 1011.4
20260510015604 81 43 3.0 8.0 0.00 0.00 0.00 10 1011.3
20260510015504 81 42 4.0 8.0 0.00 0.00 0.00 10 1011.5
20260510015404 81 44 4.0 8.0 0.00 0.00 0.00 10 1011.4
20260510015306 81 41 3.0 8.0 0.00 0.00 0.00 10 1011.5
20260510015203 82 39 6.0 8.0 0.00 0.00 0.00 10 1011.4
20260510015104 82 38 4.0 8.0 0.00 0.00 0.00 10 1011.5
20260510014904 82 28 4.0 8.0 0.00 0.00 0.00 10 1011.4
20260510014804 82 22 5.0 8.0 0.00 0.00 0.00 10 1011.5
20260510014703 82 17 4.0 8.0 0.00 0.00 0.00 10 1011.5
20260510014604 82 15 5.0 8.0 0.00 0.00 0.00 10 1011.5
20260510014504 82 17 5.0 8.0 0.00 0.00 0.00 10 1011.5
20260510014404 82 16 2.0 5.0 0.00 0.00 0.00 10 1011.5
20260510014304 83 27 2.0 6.0 0.00 0.00 0.00 10 1011.6
20260510014203 83 30 1.0 8.0 0.00 0.00 0.00 10 1011.4
20260510014104 83 22 2.0 8.0 0.00 0.00 0.00 10 1011.4
20260510014005 83 13 2.0 8.0 0.00 0.00 0.00 10 1011.5
20260510013904 83 11 3.0 8.0 0.00 0.00 0.00 10 1011.6
20260510013804 83 359 2.0 8.0 0.00 0.00 0.00 10 1011.6
20260510013604 83 350 2.0 8.0 0.00 0.00 0.00 10 1011.5
20260510013504 83 340 2.0 8.0 0.00 0.00 0.00 10 1011.7
20260510013404 83 331 3.0 8.0 0.00 0.00 0.00 10 1011.5
20260510013304 83 322 3.0 8.0 0.00 0.00 0.00 10 1011.5
20260510013203 83 312 4.0 8.0 0.00 0.00 0.00 10 1011.5
20260510013104 83 317 2.0 8.0 0.00 0.00 0.00 10 1011.4
20260510012903 83 323 4.0 8.0 0.00 0.00 0.00 10 1011.4
20260510012804 83 324 4.0 8.0 0.00 0.00 0.00 10 1011.3
20260510012703 83 324 4.0 8.0 0.00 0.00 0.00 10 1011.5
20260510012604 83 329 4.0 8.0 0.00 0.00 0.00 10 1011.4
20260510012504 83 334 4.0 8.0 0.00 0.00 0.00 10 1011.5
20260510012404 83 344 4.0 8.0 0.00 0.00 0.00 10 1011.3
20260510012203 83 348 4.0 8.0 0.00 0.00 0.00 10 1011.5
20260510012104 83 351 4.0 8.0 0.00 0.00 0.00 10 1011.4
20260510012004 83 356 4.0 9.0 0.00 0.00 0.00 10 1011.4
20260510011903 83 2 2.0 9.0 0.00 0.00 0.00 10 1011.4
20260510011704 83 4 2.0 10.0 0.00 0.00 0.00 10 1011.4
20260510011604 83 5 2.0 10.0 0.00 0.00 0.00 10 1011.4
20260510011504 83 2 4.0 10.0 0.00 0.00 0.00 10 1011.4
20260510011404 83 358 3.0 10.0 0.00 0.00 0.00 10 1011.4
20260510011303 83 1 3.0 10.0 0.00 0.00 0.00 10 1011.4
20260510011204 83 9 3.0 10.0 0.00 0.00 0.00 10 1011.4
20260510011104 83 16 4.0 10.0 0.00 0.00 0.00 10 1011.4
20260510010904 83 6 4.0 11.0 0.00 0.00 0.00 10 1011.4
20260510010804 83 3 4.0 11.0 0.00 0.00 0.00 10 1011.4
20260510010704 83 8 2.0 11.0 0.00 0.00 0.00 10 1011.4
20260510010604 83 7 4.0 11.0 0.00 0.00 0.00 10 1011.3
20260510010504 83 6 4.0 11.0 0.00 0.00 0.00 10 1011.4
20260510010404 83 5 4.0 11.0 0.00 0.00 0.00 10 1011.3
20260510010303 83 353 3.0 11.0 0.00 0.00 0.00 10 1011.4
20260510010204 83 343 4.0 11.0 0.00 0.00 0.00 10 1011.4
20260510010104 83 335 4.0 11.0 0.00 0.00 0.00 10 1011.4
20260510010004 83 332 7.0 11.0 0.00 0.00 0.00 10 1011.3
20260510005903 84 333 4.0 11.0 0.00 0.00 0.00 10 1011.4
20260510005804 84 336 3.0 11.0 0.00 0.00 0.00 10 1011.4
20260510005604 83 335 3.0 10.0 0.00 0.00 0.00 10 1011.4
20260510005504 83 343 2.0 10.0 0.00 0.00 0.00 10 1011.4
20260510005404 83 351 4.0 10.0 0.00 0.00 0.00 10 1011.4
20260510005306 83 9 3.0 10.0 0.00 0.00 0.00 10 1011.4
20260510005204 83 27 3.0 9.0 0.00 0.00 0.00 10 1011.4
20260510005103 83 35 4.0 10.0 0.00 0.00 0.00 10 1011.4
20260510005004 83 40 4.0 10.0 0.00 0.00 0.00 10 1011.4
20260510004903 83 42 3.0 10.0 0.00 0.00 0.00 10 1011.3
20260510004804 83 45 4.0 10.0 0.00 0.00 0.00 10 1011.3
20260510004704 83 42 4.0 11.0 0.00 0.00 0.00 10 1011.4
20260510004604 83 43 3.0 11.0 0.00 0.00 0.00 10 1011.5
20260510004504 83 38 3.0 11.0 0.00 0.00 0.00 10 1011.4
20260510004404 83 34 6.0 11.0 0.00 0.00 0.00 10 1011.3
20260510004203 84 9 6.0 11.0 0.00 0.00 0.00 10 1011.4
20260510004104 84 355 6.0 11.0 0.00 0.00 0.00 10 1011.4
20260510004004 84 337 6.0 11.0 0.00 0.00 0.00 10 1011.4
20260510003904 84 329 6.0 11.0 0.00 0.00 0.00 10 1011.4
20260510003804 84 332 7.0 11.0 0.00 0.00 0.00 10 1011.4
20260510003703 84 335 8.0 11.0 0.00 0.00 0.00 10 1011.5
20260510003604 84 322 4.0 10.0 0.00 0.00 0.00 10 1011.4
20260510003505 84 332 2.0 11.0 0.00 0.00 0.00 10 1011.4
20260510003404 84 335 2.0 11.0 0.00 0.00 0.00 10 1011.4
20260510003304 84 339 3.0 11.0 0.00 0.00 0.00 10 1011.5
20260510003104 85 352 4.0 11.0 0.00 0.00 0.00 10 1011.5
20260510003004 85 357 5.0 11.0 0.00 0.00 0.00 10 1011.4
20260510002904 85 2 5.0 11.0 0.00 0.00 0.00 10 1011.5
20260510002804 85 1 5.0 11.0 0.00 0.00 0.00 10 1011.4
20260510002704 85 3 8.0 11.0 0.00 0.00 0.00 10 1011.4
20260510002603 85 9 5.0 11.0 0.00 0.00 0.00 10 1011.5
20260510002504 85 10 7.0 11.0 0.00 0.00 0.00 10 1011.4
20260510002403 85 13 7.0 11.0 0.00 0.00 0.00 10 1011.4
20260510002306 85 17 7.0 11.0 0.00 0.00 0.00 10 1011.4
20260510002204 85 22 7.0 11.0 0.00 0.00 0.00 10 1011.4
20260510002104 85 21 7.0 11.0 0.00 0.00 0.00 10 1011.4
20260510002004 85 23 4.0 8.0 0.00 0.00 0.00 10 1011.5
20260510001904 85 31 4.0 8.0 0.00 0.00 0.00 10 1011.5
20260510001804 85 23 3.0 11.0 0.00 0.00 0.00 10 1011.5
20260510001704 85 17 3.0 12.0 0.00 0.00 0.00 10 1011.5
20260510001504 85 17 1.0 12.0 0.00 0.00 0.00 10 1011.5
20260510001404 85 11 2.0 12.0 0.00 0.00 0.00 10 1011.5
20260510001204 85 357 5.0 12.0 0.00 0.00 0.00 10 1011.5
20260510001103 85 8 4.0 12.0 0.00 0.00 0.00 10 1011.6
20260510000904 85 356 4.0 12.0 0.00 0.00 0.00 10 1011.5
20260510000804 85 4 3.0 12.0 0.00 0.00 0.00 10 1011.5
20260510000604 85 338 3.0 8.0 0.00 0.00 0.00 10 1011.4
20260510000504 85 317 3.0 8.0 0.00 0.00 0.00 10 1011.6
20260510000304 85 287 2.0 8.0 0.00 0.00 0.00 10 1011.6
20260510000103 85 277 4.0 8.0 0.00 0.00 0.00 10 1011.7
20260510000004 85 270 2.0 8.0 0.00 0.00 0.00 10 1011.6
20260509235904 85 0 0.0 8.0 0.00 0.00 0.00 10 1011.6
20260509235804 84 272 1.0 8.0 0.00 0.00 0.00 10 1011.6
20260509235704 84 301 2.0 8.0 0.00 0.00 0.00 10 1011.7
20260509235604 85 323 3.0 8.0 0.00 0.00 0.00 10 1011.7
20260509235504 85 327 2.0 8.0 0.00 0.00 0.00 10 1011.5
20260509235403 85 323 2.0 8.0 0.00 0.00 0.00 10 1011.6
20260509235306 85 327 2.0 8.0 0.00 0.00 0.00 10 1011.6
20260509235204 85 342 2.0 8.0 0.00 0.00 0.00 10 1011.6
20260509235104 84 0 0.0 8.0 0.00 0.00 0.00 10 1011.7
20260509235004 84 0 0.0 8.0 0.00 0.00 0.00 10 1011.7
20260509234903 84 341 1.0 8.0 0.00 0.00 0.00 10 1011.7
20260509234804 85 339 3.0 8.0 0.00 0.00 0.00 10 1011.8
20260509234704 85 325 3.0 8.0 0.00 0.00 0.00 10 1011.8
20260509234604 85 328 4.0 8.0 0.00 0.00 0.00 10 1011.7
20260509234504 85 342 4.0 8.0 0.00 0.00 0.00 10 1011.6
20260509234403 85 1 4.0 8.0 0.00 0.00 0.00 10 1011.8
20260509234204 84 28 4.0 10.0 0.00 0.00 0.00 10 1011.7
20260509234105 84 44 3.0 10.0 0.00 0.00 0.00 10 1011.8
20260509233903 84 40 2.0 11.0 0.00 0.00 0.00 10 1011.8
20260509233804 84 34 2.0 11.0 0.00 0.00 0.00 10 1011.8
20260509233703 84 34 2.0 11.0 0.00 0.00 0.00 10 1011.7
20260509233603 84 35 4.0 11.0 0.00 0.00 0.00 10 1011.7
20260509233504 84 31 4.0 11.0 0.00 0.00 0.00 10 1011.8
20260509233403 84 35 5.0 11.0 0.00 0.00 0.00 10 1011.6
20260509233204 84 21 5.0 11.0 0.00 0.00 0.00 10 1011.6
20260509233103 84 12 4.0 11.0 0.00 0.00 0.00 10 1011.6
20260509233004 84 27 4.0 11.0 0.00 0.00 0.00 10 1011.8
20260509232903 84 28 8.0 11.0 0.00 0.00 0.00 10 1011.7
20260509232804 84 48 4.0 8.0 0.00 0.00 0.00 10 1011.7
20260509232603 84 91 2.0 10.0 0.00 0.00 0.00 10 1011.8
20260509232504 84 95 3.0 10.0 0.00 0.00 0.00 10 1011.8
20260509232306 84 84 2.0 10.0 0.00 0.00 0.00 10 1011.8
20260509232204 84 79 2.0 12.0 0.00 0.00 0.00 10 1011.8
20260509232103 84 75 3.0 12.0 0.00 0.00 0.00 10 1011.8
20260509232004 84 71 2.0 12.0 0.00 0.00 0.00 10 1011.8
20260509231803 84 65 3.0 12.0 0.00 0.00 0.00 10 1011.8
20260509231704 84 58 1.0 12.0 0.00 0.00 0.00 10 1011.8
20260509231604 84 49 7.0 12.0 0.00 0.00 0.00 10 1011.8
20260509231503 84 31 5.0 12.0 0.00 0.00 0.00 10 1011.9
20260509231404 84 18 7.0 12.0 0.00 0.00 0.00 10 1011.9
20260509231303 84 12 6.0 12.0 0.00 0.00 0.00 10 1011.8
20260509231204 84 354 5.0 11.0 0.00 0.00 0.00 10 1011.9
20260509231104 84 339 4.0 11.0 0.00 0.00 0.00 10 1011.9
20260509231004 84 330 5.0 11.0 0.00 0.00 0.00 10 1011.9
20260509230904 84 322 4.0 11.0 0.00 0.00 0.00 10 1011.9
20260509230803 84 319 4.0 11.0 0.00 0.00 0.00 10 1012.0
20260509230704 84 316 4.0 11.0 0.00 0.00 0.00 10 1011.9
20260509230604 84 317 8.0 11.0 0.00 0.00 0.00 10 1011.9
20260509230404 84 324 2.0 11.0 0.00 0.00 0.00 10 1011.8
20260509230204 84 314 4.0 11.0 0.00 0.00 0.00 10 1011.9
20260509230004 84 326 4.0 11.0 0.00 0.00 0.00 10 1011.9
20260509225904 84 334 7.0 11.0 0.00 0.00 0.00 10 1012.1
20260509225804 84 333 6.0 11.0 0.00 0.00 0.00 10 1012.0
20260509225704 84 348 4.0 10.0 0.00 0.00 0.00 10 1011.9
20260509225604 84 350 3.0 11.0 0.00 0.00 0.00 10 1011.9
20260509225504 84 354 4.0 11.0 0.00 0.00 0.00 10 1012.0
20260509225403 84 356 4.0 12.0 0.00 0.00 0.00 10 1012.0
20260509225306 84 6 5.0 12.0 0.00 0.00 0.00 10 1012.1
20260509225204 84 18 2.0 12.0 0.00 0.00 0.00 10 1012.0
20260509225104 84 10 3.0 12.0 0.00 0.00 0.00 10 1012.0
20260509225004 84 12 3.0 12.0 0.00 0.00 0.00 10 1012.1
20260509224804 84 11 4.0 12.0 0.00 0.00 0.00 10 1012.1
20260509224704 84 2 5.0 12.0 0.00 0.00 0.00 10 1012.1
20260509224603 84 7 6.0 12.0 0.00 0.00 0.00 10 1012.1
20260509224504 84 11 6.0 12.0 0.00 0.00 0.00 10 1012.1
20260509224404 84 13 8.0 12.0 0.00 0.00 0.00 10 1012.1
20260509224304 84 20 5.0 10.0 0.00 0.00 0.00 10 1012.1
20260509224204 84 15 4.0 10.0 0.00 0.00 0.00 10 1012.2
20260509224104 84 17 4.0 10.0 0.00 0.00 0.00 10 1012.2
20260509224004 84 8 6.0 10.0 0.00 0.00 0.00 10 1012.3
20260509223904 84 356 4.0 9.0 0.00 0.00 0.00 10 1012.3
20260509223804 84 355 4.0 9.0 0.00 0.00 0.00 10 1012.3
20260509223603 84 7 2.0 11.0 0.00 0.00 0.00 10 1012.3
20260509223504 84 1 2.0 11.0 0.00 0.00 0.00 10 1012.2
20260509223403 84 359 3.0 11.0 0.00 0.00 0.00 10 1012.3
20260509223304 84 356 2.0 11.0 0.00 0.00 0.00 10 1012.3
20260509223204 84 358 3.0 11.0 0.00 0.00 0.00 10 1012.4
20260509223104 84 5 3.0 11.0 0.00 0.00 0.00 10 1012.4
20260509223004 84 12 4.0 11.0 0.00 0.00 0.00 10 1012.3
20260509222903 84 12 4.0 11.0 0.00 0.00 0.00 10 1012.4
20260509222704 84 22 4.0 11.0 0.00 0.00 0.00 10 1012.4
20260509222604 83 33 7.0 11.0 0.00 0.00 0.00 10 1012.4
20260509222504 83 41 7.0 11.0 0.00 0.00 0.00 10 1012.3
20260509222404 83 49 4.0 11.0 0.00 0.00 0.00 10 1012.4
20260509222306 83 52 6.0 11.0 0.00 0.00 0.00 10 1012.3
20260509222204 83 52 4.0 11.0 0.00 0.00 0.00 10 1012.5
20260509222104 83 48 6.0 11.0 0.00 0.00 0.00 10 1012.4
20260509222003 83 49 4.0 11.0 0.00 0.00 0.00 10 1012.5
20260509221904 83 49 4.0 11.0 0.00 0.00 0.00 10 1012.4
20260509221804 83 45 4.0 11.0 0.00 0.00 0.00 10 1012.4
20260509221703 83 37 6.0 11.0 0.00 0.00 0.00 10 1012.4
20260509221504 84 356 8.0 11.0 0.00 0.00 0.00 10 1012.4
20260509221403 84 328 6.0 8.0 0.00 0.00 0.00 10 1012.4
20260509221304 84 310 5.0 8.0 0.00 0.00 0.00 10 1012.4
20260509221204 84 297 5.0 9.0 0.00 0.00 0.00 10 1012.4
20260509221103 84 301 3.0 9.0 0.00 0.00 0.00 10 1012.4
20260509220904 84 305 2.0 11.0 0.00 0.00 0.00 10 1012.6
20260509220604 84 304 4.0 11.0 0.00 0.00 0.00 10 1012.6
20260509220504 84 312 4.0 11.0 0.00 0.00 0.00 10 1012.6
20260509220404 84 323 4.0 11.0 0.00 0.00 0.00 10 1012.4
20260509220204 83 350 4.0 11.0 0.00 0.00 0.00 10 1012.6
20260509220104 83 1 4.0 11.0 0.00 0.00 0.00 10 1012.6
20260509212703 82 318 4.0 8.0 0.00 0.00 0.00 10 1013.0
20260509212604 82 321 3.0 6.0 0.00 0.00 0.00 10 1013.0
20260509212503 82 318 2.0 8.0 0.00 0.00 0.00 10 1013.0
20260509212306 81 294 4.0 8.0 0.00 0.00 0.00 10 1013.0
20260509212104 81 285 2.0 8.0 0.00 0.00 0.00 10 1013.1
20260509212003 81 284 2.0 8.0 0.00 0.00 0.00 10 1013.2
20260509211904 81 299 2.0 8.0 0.00 0.00 0.00 10 1013.1
20260509211803 82 313 3.0 8.0 0.00 0.00 0.00 10 1013.2
20260509211703 82 333 3.0 8.0 0.00 0.00 0.00 10 1013.2
20260509211605 82 345 2.0 8.0 0.00 0.00 0.00 10 1013.2
20260509211504 82 341 4.0 8.0 0.00 0.00 0.00 10 1013.3
20260509211403 82 340 4.0 9.0 0.00 0.00 0.00 10 1013.2
20260509211304 82 332 2.0 9.0 0.00 0.00 0.00 10 1013.2
20260509211203 82 323 3.0 9.0 0.00 0.00 0.00 10 1013.1
20260509211104 83 321 4.0 9.0 0.00 0.00 0.00 10 1013.1
20260509211004 83 323 3.0 9.0 0.00 0.00 0.00 10 1013.1
20260509210903 83 318 4.0 9.0 0.00 0.00 0.00 10 1013.0
20260509210804 83 307 4.0 9.0 0.00 0.00 0.00 10 1013.3
20260509210703 82 306 4.0 9.0 0.00 0.00 0.00 10 1013.2
20260509210604 82 310 4.0 9.0 0.00 0.00 0.00 10 1013.2
20260509210403 82 313 4.0 9.0 0.00 0.00 0.00 10 1013.2
20260509210304 82 327 2.0 9.0 0.00 0.00 0.00 10 1013.2
20260509210203 82 336 2.0 9.0 0.00 0.00 0.00 10 1013.1
20260509205903 82 327 1.0 9.0 0.00 0.00 0.00 10 1013.2
20260509205704 82 325 5.0 9.0 0.00 0.00 0.00 10 1013.2
20260509205603 82 317 4.0 9.0 0.00 0.00 0.00 10 1013.2
20260509205504 82 328 4.0 8.0 0.00 0.00 0.00 10 1013.2
20260509205306 81 302 2.0 8.0 0.00 0.00 0.00 10 1013.3
20260509205204 81 278 4.0 8.0 0.00 0.00 0.00 10 1013.3
20260509205103 81 254 3.0 8.0 0.00 0.00 0.00 10 1013.3
20260509204904 82 153 4.0 8.0 0.00 0.00 0.00 10 1013.2
20260509204804 82 91 1.0 8.0 0.00 0.00 0.00 10 1013.1
20260509204704 82 55 1.0 8.0 0.00 0.00 0.00 10 1013.3
20260509204603 82 22 1.0 8.0 0.00 0.00 0.00 10 1013.2
20260509204503 82 10 2.0 10.0 0.00 0.00 0.00 10 1013.2
20260509204404 82 11 1.0 10.0 0.00 0.00 0.00 10 1013.2
20260509204303 82 6 1.0 10.0 0.00 0.00 0.00 10 1013.4
20260509204204 82 5 2.0 10.0 0.00 0.00 0.00 10 1013.2
20260509204103 82 0 0.0 10.0 0.00 0.00 0.00 10 1013.3
20260509203904 82 4 5.0 10.0 0.00 0.00 0.00 10 1013.3
20260509203803 82 2 3.0 10.0 0.00 0.00 0.00 10 1013.3
20260509203704 82 2 2.0 10.0 0.00 0.00 0.00 10 1013.3
20260509203503 82 11 3.0 10.0 0.00 0.00 0.00 10 1013.3
20260509203404 82 7 6.0 10.0 0.00 0.00 0.00 10 1013.4
20260509203303 82 4 2.0 10.0 0.00 0.00 0.00 10 1013.3
20260509203204 82 358 5.0 10.0 0.00 0.00 0.00 10 1013.4
20260509203103 82 353 5.0 10.0 0.00 0.00 0.00 10 1013.4
20260509202903 82 344 4.0 9.0 0.00 0.00 0.00 10 1013.4
20260509202804 81 345 4.0 9.0 0.00 0.00 0.00 10 1013.4
20260509202704 81 345 4.0 9.0 0.00 0.00 0.00 10 1013.4
20260509202603 81 337 4.0 9.0 0.00 0.00 0.00 10 1013.4
20260509202504 81 332 3.0 9.0 0.00 0.00 0.00 10 1013.4
20260509202403 81 329 4.0 9.0 0.00 0.00 0.00 10 1013.4
20260509202306 82 337 2.0 10.0 0.00 0.00 0.00 10 1013.4
20260509202203 82 343 4.0 10.0 0.00 0.00 0.00 10 1013.4
20260509202103 82 350 4.0 10.0 0.00 0.00 0.00 10 1013.4
20260509201903 81 352 3.0 10.0 0.00 0.00 0.00 10 1013.4
20260509201804 81 356 3.0 10.0 0.00 0.00 0.00 10 1013.4
20260509201704 81 359 3.0 10.0 0.00 0.00 0.00 10 1013.4
20260509201603 81 352 3.0 10.0 0.00 0.00 0.00 10 1013.4
20260509201504 81 350 3.0 10.0 0.00 0.00 0.00 10 1013.4
20260509201403 81 344 4.0 10.0 0.00 0.00 0.00 10 1013.5
20260509201304 81 349 5.0 10.0 0.00 0.00 0.00 10 1013.5
20260509201103 80 345 3.0 8.0 0.00 0.00 0.00 10 1013.6
20260509201004 80 15 4.0 8.0 0.00 0.00 0.00 10 1013.5
20260509200903 80 35 4.0 8.0 0.00 0.00 0.00 10 1013.6
20260509200803 80 318 3.0 8.0 0.00 0.00 0.00 10 1013.6
20260509200704 80 270 4.0 8.0 0.00 0.00 0.00 10 1013.7
20260509200404 79 207 4.0 7.0 0.00 0.00 0.00 10 1013.8
20260509200303 79 241 3.0 7.0 0.00 0.00 0.00 10 1013.7
20260509200204 79 258 1.0 7.0 0.00 0.00 0.00 10 1013.7
20260509200103 79 263 1.0 7.0 0.00 0.00 0.00 10 1013.6
20260509200004 79 262 2.0 7.0 0.00 0.00 0.00 10 1013.8
20260509195803 78 270 2.0 7.0 0.00 0.00 0.00 10 1013.8
20260509195704 78 280 1.0 7.0 0.00 0.00 0.00 10 1013.9
20260509195603 78 286 3.0 7.0 0.00 0.00 0.00 10 1013.8
20260509195504 79 301 4.0 7.0 0.00 0.00 0.00 10 1013.9
20260509195404 79 311 4.0 7.0 0.00 0.00 0.00 10 1014.0
20260509195203 79 311 1.0 10.0 0.00 0.00 0.00 10 1013.9
20260509195104 79 305 1.0 10.0 0.00 0.00 0.00 10 1013.9
20260509195003 79 306 2.0 10.0 0.00 0.00 0.00 10 1013.9
20260509194904 79 304 2.0 10.0 0.00 0.00 0.00 10 1013.9
20260509194804 79 303 4.0 10.0 0.00 0.00 0.00 10 1013.9
20260509194703 79 305 3.0 10.0 0.00 0.00 0.00 10 1014.0
20260509194604 79 307 3.0 10.0 0.00 0.00 0.00 10 1014.0
20260509194504 79 309 4.0 10.0 0.00 0.00 0.00 10 1013.9
20260509194403 79 318 4.0 10.0 0.00 0.00 0.00 10 1014.1
20260509194204 79 322 4.0 11.0 0.00 0.00 0.00 10 1013.9
20260509194103 79 348 5.0 11.0 0.00 0.00 0.00 10 1014.0
20260509194004 79 42 5.0 11.0 0.00 0.00 0.00 10 1014.0
20260509193904 79 71 4.0 11.0 0.00 0.00 0.00 10 1014.0
20260509193805 79 79 4.0 11.0 0.00 0.00 0.00 10 1014.0
20260509193703 79 83 4.0 11.0 0.00 0.00 0.00 10 1014.0
20260509193603 78 86 4.0 11.0 0.00 0.00 0.00 10 1014.0
20260509193404 78 90 2.0 11.0 0.00 0.00 0.00 10 1014.1
20260509193303 78 86 2.0 11.0 0.00 0.00 0.00 10 1014.0
20260509193204 78 65 3.0 10.0 0.00 0.00 0.00 10 1014.1
20260509193104 78 57 3.0 10.0 0.00 0.00 0.00 10 1014.1
20260509193004 78 44 6.0 10.0 0.00 0.00 0.00 10 1014.1
20260509192903 78 23 4.0 9.0 0.00 0.00 0.00 10 1014.2
20260509192803 78 16 4.0 9.0 0.00 0.00 0.00 10 1014.1
20260509192603 78 346 1.0 9.0 0.00 0.00 0.00 10 1014.2
20260509192503 78 344 2.0 9.0 0.00 0.00 0.00 10 1014.2
20260509192404 78 333 3.0 9.0 0.00 0.00 0.00 10 1014.3
20260509192306 78 321 3.0 9.0 0.00 0.00 0.00 10 1014.3
20260509192204 78 318 5.0 9.0 0.00 0.00 0.00 10 1014.3
20260509192104 78 312 4.0 9.0 0.00 0.00 0.00 10 1014.3
20260509192004 78 314 6.0 10.0 0.00 0.00 0.00 10 1014.3
20260509191904 78 311 4.0 10.0 0.00 0.00 0.00 10 1014.3
20260509191804 78 304 4.0 10.0 0.00 0.00 0.00 10 1014.3
20260509191703 78 302 5.0 10.0 0.00 0.00 0.00 10 1014.3
20260509191603 78 308 2.0 10.0 0.00 0.00 0.00 10 1014.3
20260509191504 78 319 2.0 10.0 0.00 0.00 0.00 10 1014.4
20260509191403 78 333 2.0 10.0 0.00 0.00 0.00 10 1014.3